Wetterdaten: Mittwoch, 27.11.2019
Datum Zeit Temp. Aussen Temp. o. S. Temp +5cm Feuchte Auss Luftdruck Regen Sonnenschein Regendauer Solar Windben Empfang
27.11.2019 00:00 10,3 C 9,4 C 8,3 C 93 % 998,3 hPa 0,0 l/m 0 min 0 min 0 W/m 16,1 km/h (3 Bft) 100,00 %
27.11.2019 00:02 10,3 C 9,4 C 8,3 C 93 % 998,3 hPa 0,0 l/m 0 min 0 min 0 W/m 12,9 km/h (3 Bft) 97,87 %
27.11.2019 00:04 10,3 C 9,4 C 8,3 C 93 % 998,4 hPa 0,0 l/m 0 min 0 min 0 W/m 16,1 km/h (3 Bft) 97,83 %
27.11.2019 00:08 10,3 C 9,4 C 8,3 C 93 % 998,3 hPa 0,0 l/m 0 min 0 min 0 W/m 16,1 km/h (3 Bft) 98,94 %
27.11.2019 00:10 10,2 C 9,4 C 8,3 C 93 % 998,3 hPa 0,0 l/m 0 min 0 min 0 W/m 12,9 km/h (3 Bft) 97,87 %
27.11.2019 00:12 10,2 C 9,4 C 8,3 C 93 % 998,2 hPa 0,0 l/m 0 min 0 min 0 W/m 12,9 km/h (3 Bft) 97,87 %
27.11.2019 00:14 10,2 C 9,4 C 8,3 C 94 % 998,1 hPa 0,0 l/m 0 min 0 min 0 W/m 16,1 km/h (3 Bft) 97,83 %
27.11.2019 00:16 10,2 C 9,4 C 8,3 C 94 % 998,1 hPa 0,0 l/m 0 min 0 min 0 W/m 19,3 km/h (3 Bft) 97,92 %
27.11.2019 00:18 10,1 C 9,4 C 8,3 C 94 % 998,0 hPa 0,0 l/m 0 min 0 min 0 W/m 19,3 km/h (3 Bft) 97,83 %
27.11.2019 00:20 10,1 C 9,4 C 8,3 C 94 % 997,9 hPa 0,0 l/m 0 min 0 min 0 W/m 12,9 km/h (3 Bft) 97,87 %
27.11.2019 00:22 10,1 C 9,4 C 8,3 C 94 % 997,9 hPa 0,0 l/m 0 min 0 min 0 W/m 16,1 km/h (3 Bft) 97,87 %
27.11.2019 00:24 10,1 C 9,4 C 8,3 C 94 % 997,9 hPa 0,0 l/m 0 min 0 min 0 W/m 16,1 km/h (3 Bft) 95,74 %
27.11.2019 00:26 10,1 C 9,4 C 8,3 C 94 % 997,9 hPa 0,0 l/m 0 min 0 min 0 W/m 16,1 km/h (3 Bft) 97,83 %
27.11.2019 00:28 10,1 C 9,4 C 8,3 C 94 % 997,9 hPa 0,0 l/m 0 min 0 min 0 W/m 12,9 km/h (3 Bft) 97,92 %
27.11.2019 00:30 10,1 C 9,4 C 8,3 C 94 % 997,9 hPa 0,0 l/m 0 min 0 min 0 W/m 16,1 km/h (3 Bft) 97,83 %
27.11.2019 00:32 10,1 C 8,9 C 8,3 C 94 % 998,0 hPa 0,0 l/m 0 min 0 min 0 W/m 22,5 km/h (4 Bft) 95,74 %
27.11.2019 00:34 10,1 C 8,9 C 8,3 C 94 % 998,0 hPa 0,0 l/m 0 min 0 min 0 W/m 16,1 km/h (3 Bft) 95,74 %
27.11.2019 00:36 10,0 C 8,9 C 8,3 C 94 % 997,9 hPa 0,0 l/m 0 min 0 min 0 W/m 12,9 km/h (3 Bft) 95,74 %
27.11.2019 00:38 10,0 C 8,9 C 8,3 C 94 % 997,9 hPa 0,0 l/m 0 min 0 min 0 W/m 19,3 km/h (3 Bft) 95,65 %
27.11.2019 00:40 10,0 C 8,9 C 8,3 C 94 % 997,9 hPa 0,0 l/m 0 min 0 min 0 W/m 16,1 km/h (3 Bft) 95,74 %
27.11.2019 00:42 10,0 C 8,9 C 8,3 C 94 % 997,9 hPa 0,0 l/m 0 min 0 min 0 W/m 22,5 km/h (4 Bft) 93,62 %
27.11.2019 00:44 9,9 C 8,9 C 8,3 C 94 % 997,9 hPa 0,0 l/m 0 min 0 min 0 W/m 19,3 km/h (3 Bft) 95,74 %
27.11.2019 00:46 9,9 C 8,9 C 8,3 C 94 % 997,9 hPa 0,0 l/m 0 min 0 min 0 W/m 12,9 km/h (3 Bft) 93,62 %
27.11.2019 00:48 9,9 C 8,9 C 8,3 C 94 % 997,9 hPa 0,0 l/m 0 min 0 min 0 W/m 16,1 km/h (3 Bft) 91,49 %
27.11.2019 00:50 9,9 C 8,9 C 8,3 C 94 % 997,8 hPa 0,0 l/m 0 min 0 min 0 W/m 19,3 km/h (3 Bft) 95,65 %
27.11.2019 00:52 9,9 C 8,9 C 8,3 C 94 % 997,8 hPa 0,0 l/m 0 min 0 min 0 W/m 12,9 km/h (3 Bft) 91,49 %
27.11.2019 00:54 9,9 C 8,9 C 8,3 C 94 % 997,7 hPa 0,0 l/m 0 min 0 min 0 W/m 19,3 km/h (3 Bft) 95,74 %
27.11.2019 00:56 9,9 C 8,9 C 8,3 C 94 % 997,7 hPa 0,0 l/m 0 min 0 min 0 W/m 22,5 km/h (4 Bft) 95,74 %
27.11.2019 00:58 9,8 C 8,9 C 8,3 C 94 % 997,5 hPa 0,0 l/m 0 min 0 min 0 W/m 19,3 km/h (3 Bft) 95,74 %
27.11.2019 01:00 9,8 C 8,9 C 8,3 C 94 % 997,5 hPa 0,0 l/m 0 min 0 min 0 W/m 19,3 km/h (3 Bft) 95,74 %
27.11.2019 01:02 9,8 C 8,9 C 8,3 C 94 % 997,4 hPa 0,0 l/m 0 min 0 min 0 W/m 19,3 km/h (3 Bft) 97,87 %
27.11.2019 01:04 9,8 C 8,9 C 8,3 C 94 % 997,4 hPa 0,0 l/m 0 min 0 min 0 W/m 19,3 km/h (3 Bft) 97,83 %
27.11.2019 01:06 9,8 C 8,9 C 8,3 C 94 % 997,4 hPa 0,0 l/m 0 min 0 min 0 W/m 22,5 km/h (4 Bft) 93,62 %
27.11.2019 01:08 9,8 C 8,9 C 8,3 C 94 % 997,3 hPa 0,0 l/m 0 min 0 min 0 W/m 16,1 km/h (3 Bft) 97,87 %
27.11.2019 01:10 9,8 C 8,9 C 8,3 C 94 % 997,3 hPa 0,0 l/m 0 min 0 min 0 W/m 12,9 km/h (3 Bft) 97,87 %
27.11.2019 01:12 9,8 C 8,9 C 8,3 C 94 % 997,3 hPa 0,0 l/m 0 min 0 min 0 W/m 16,1 km/h (3 Bft) 97,83 %
27.11.2019 01:14 9,8 C 8,9 C 8,3 C 94 % 997,3 hPa 0,0 l/m 0 min 0 min 0 W/m 12,9 km/h (3 Bft) 93,62 %
27.11.2019 01:16 9,8 C 8,9 C 8,3 C 94 % 997,3 hPa 0,0 l/m 0 min 0 min 0 W/m 16,1 km/h (3 Bft) 95,74 %
27.11.2019 01:18 9,8 C 8,9 C 8,3 C 94 % 997,3 hPa 0,0 l/m 0 min 0 min 0 W/m 19,3 km/h (3 Bft) 100,00 %
27.11.2019 01:20 9,8 C 8,9 C 8,3 C 94 % 997,3 hPa 0,0 l/m 0 min 0 min 0 W/m 12,9 km/h (3 Bft) 100,00 %
27.11.2019 01:22 9,8 C 8,9 C 8,3 C 95 % 997,2 hPa 0,0 l/m 0 min 0 min 0 W/m 16,1 km/h (3 Bft) 97,87 %
27.11.2019 01:24 9,8 C 8,9 C 8,3 C 95 % 997,2 hPa 0,0 l/m 0 min 0 min 0 W/m 16,1 km/h (3 Bft) 100,00 %
27.11.2019 01:26 9,8 C 9,4 C 8,9 C 95 % 997,2 hPa 0,0 l/m 0 min 0 min 0 W/m 22,5 km/h (4 Bft) 100,00 %
27.11.2019 01:28 9,8 C 9,4 C 8,3 C 95 % 997,2 hPa 0,0 l/m 0 min 0 min 0 W/m 16,1 km/h (3 Bft) 100,00 %
27.11.2019 01:30 9,8 C 9,4 C 8,3 C 95 % 997,1 hPa 0,0 l/m 0 min 0 min 0 W/m 19,3 km/h (3 Bft) 97,87 %
27.11.2019 01:32 9,8 C 9,4 C 8,3 C 95 % 997,0 hPa 0,0 l/m 0 min 0 min 0 W/m 19,3 km/h (3 Bft) 100,00 %
27.11.2019 01:34 9,8 C 9,4 C 8,3 C 95 % 996,9 hPa 0,0 l/m 0 min 0 min 0 W/m 16,1 km/h (3 Bft) 97,87 %
27.11.2019 01:36 9,8 C 9,4 C 8,3 C 95 % 996,8 hPa 0,0 l/m 0 min 0 min 0 W/m 22,5 km/h (4 Bft) 100,00 %
27.11.2019 01:38 9,8 C 9,4 C 8,3 C 95 % 996,8 hPa 0,0 l/m 0 min 0 min 0 W/m 19,3 km/h (3 Bft) 100,00 %
27.11.2019 01:40 9,8 C 9,4 C 8,9 C 95 % 996,7 hPa 0,0 l/m 0 min 0 min 0 W/m 19,3 km/h (3 Bft) 100,00 %
27.11.2019 01:42 9,8 C 9,4 C 8,9 C 95 % 996,7 hPa 0,0 l/m 0 min 0 min 0 W/m 12,9 km/h (3 Bft) 97,87 %
27.11.2019 01:44 9,8 C 9,4 C 8,9 C 95 % 996,6 hPa 0,0 l/m 0 min 0 min 0 W/m 19,3 km/h (3 Bft) 97,87 %
27.11.2019 01:46 9,8 C 9,4 C 8,9 C 95 % 996,5 hPa 0,0 l/m 0 min 0 min 0 W/m 16,1 km/h (3 Bft) 97,87 %
27.11.2019 01:48 9,8 C 9,4 C 8,9 C 95 % 996,5 hPa 0,0 l/m 0 min 0 min 0 W/m 16,1 km/h (3 Bft) 100,00 %
27.11.2019 01:50 9,8 C 9,4 C 8,9 C 95 % 996,4 hPa 0,0 l/m 0 min 0 min 0 W/m 19,3 km/h (3 Bft) 100,00 %
27.11.2019 01:52 9,8 C 9,4 C 8,9 C 95 % 996,4 hPa 0,0 l/m 0 min 0 min 0 W/m 16,1 km/h (3 Bft) 97,87 %
27.11.2019 01:54 9,8 C 9,4 C 8,9 C 95 % 996,3 hPa 0,0 l/m 0 min 0 min 0 W/m 16,1 km/h (3 Bft) 97,87 %
27.11.2019 01:56 9,8 C 9,4 C 8,9 C 95 % 996,3 hPa 0,0 l/m 0 min 0 min 0 W/m 19,3 km/h (3 Bft) 95,74 %
27.11.2019 01:58 9,9 C 9,4 C 8,9 C 95 % 996,3 hPa 0,0 l/m 0 min 0 min 0 W/m 19,3 km/h (3 Bft) 95,74 %
27.11.2019 02:00 9,9 C 9,4 C 8,9 C 95 % 996,2 hPa 0,0 l/m 0 min 0 min 0 W/m 22,5 km/h (4 Bft) 97,83 %
27.11.2019 02:02 9,9 C 9,4 C 8,9 C 95 % 996,0 hPa 0,0 l/m 0 min 0 min 0 W/m 19,3 km/h (3 Bft) 97,87 %
27.11.2019 02:04 9,9 C 9,4 C 8,9 C 95 % 996,0 hPa 0,0 l/m 0 min 0 min 0 W/m 19,3 km/h (3 Bft) 97,87 %
27.11.2019 02:06 9,9 C 9,4 C 8,9 C 95 % 995,8 hPa 0,0 l/m 0 min 0 min 0 W/m 12,9 km/h (3 Bft) 97,87 %
27.11.2019 02:08 9,9 C 9,4 C 8,9 C 95 % 995,8 hPa 0,0 l/m 0 min 0 min 0 W/m 16,1 km/h (3 Bft) 97,87 %
27.11.2019 02:10 9,9 C 9,4 C 8,9 C 95 % 995,8 hPa 0,0 l/m 0 min 0 min 0 W/m 25,7 km/h (4 Bft) 97,87 %
27.11.2019 02:12 9,9 C 9,4 C 8,9 C 95 % 995,7 hPa 0,0 l/m 0 min 0 min 0 W/m 16,1 km/h (3 Bft) 97,83 %
27.11.2019 02:14 9,9 C 9,4 C 8,9 C 95 % 995,6 hPa 0,0 l/m 0 min 0 min 0 W/m 12,9 km/h (3 Bft) 97,87 %
27.11.2019 02:16 9,9 C 9,4 C 8,9 C 95 % 995,6 hPa 0,0 l/m 0 min 0 min 0 W/m 22,5 km/h (4 Bft) 97,87 %
27.11.2019 02:18 9,9 C 9,4 C 8,9 C 95 % 995,4 hPa 0,0 l/m 0 min 0 min 0 W/m 12,9 km/h (3 Bft) 97,87 %
27.11.2019 02:20 9,9 C 9,4 C 8,9 C 95 % 995,4 hPa 0,0 l/m 0 min 0 min 0 W/m 19,3 km/h (3 Bft) 97,87 %
27.11.2019 02:22 9,9 C 9,4 C 8,9 C 95 % 995,2 hPa 0,0 l/m 0 min 0 min 0 W/m 12,9 km/h (3 Bft) 97,83 %
27.11.2019 02:24 9,9 C 9,4 C 8,9 C 95 % 995,1 hPa 0,0 l/m 0 min 0 min 0 W/m 12,9 km/h (3 Bft) 97,87 %
27.11.2019 02:26 9,9 C 9,4 C 8,9 C 95 % 995,0 hPa 0,0 l/m 0 min 0 min 0 W/m 19,3 km/h (3 Bft) 97,87 %
27.11.2019 02:28 9,9 C 9,4 C 8,9 C 95 % 995,0 hPa 0,0 l/m 0 min 0 min 0 W/m 16,1 km/h (3 Bft) 97,87 %
27.11.2019 02:30 9,9 C 9,4 C 8,9 C 95 % 994,9 hPa 0,0 l/m 0 min 0 min 0 W/m 16,1 km/h (3 Bft) 95,74 %
27.11.2019 02:32 9,9 C 9,4 C 8,9 C 95 % 994,9 hPa 0,0 l/m 0 min 0 min 0 W/m 19,3 km/h (3 Bft) 97,87 %
27.11.2019 02:34 9,9 C 9,4 C 8,9 C 95 % 994,9 hPa 0,0 l/m 0 min 0 min 0 W/m 19,3 km/h (3 Bft) 97,83 %
27.11.2019 02:36 10,0 C 9,4 C 8,9 C 95 % 994,8 hPa 0,0 l/m 0 min 0 min 0 W/m 22,5 km/h (4 Bft) 97,87 %
27.11.2019 02:38 10,0 C 9,4 C 8,9 C 95 % 994,8 hPa 0,0 l/m 0 min 0 min 0 W/m 25,7 km/h (4 Bft) 97,87 %
27.11.2019 02:40 10,0 C 9,4 C 8,9 C 95 % 994,8 hPa 0,0 l/m 0 min 0 min 0 W/m 16,1 km/h (3 Bft) 97,87 %
27.11.2019 02:42 10,0 C 9,4 C 8,9 C 95 % 994,6 hPa 0,0 l/m 0 min 0 min 0 W/m 16,1 km/h (3 Bft) 97,87 %
27.11.2019 02:44 10,1 C 9,4 C 8,9 C 95 % 994,6 hPa 0,0 l/m 0 min 0 min 0 W/m 22,5 km/h (4 Bft) 97,87 %
27.11.2019 02:46 10,1 C 9,4 C 8,9 C 95 % 994,6 hPa 0,0 l/m 0 min 0 min 0 W/m 19,3 km/h (3 Bft) 100,00 %
27.11.2019 02:48 10,1 C 9,4 C 8,9 C 95 % 994,6 hPa 0,0 l/m 0 min 0 min 0 W/m 25,7 km/h (4 Bft) 100,00 %
27.11.2019 02:50 10,0 C 9,4 C 8,9 C 95 % 994,6 hPa 0,0 l/m 0 min 0 min 0 W/m 22,5 km/h (4 Bft) 100,00 %
27.11.2019 02:52 10,0 C 9,4 C 8,9 C 94 % 994,6 hPa 0,0 l/m 0 min 0 min 0 W/m 19,3 km/h (3 Bft) 100,00 %
27.11.2019 02:54 10,0 C 9,4 C 8,9 C 94 % 994,6 hPa 0,0 l/m 0 min 0 min 0 W/m 12,9 km/h (3 Bft) 95,74 %
27.11.2019 02:56 10,0 C 9,4 C 8,3 C 94 % 994,5 hPa 0,0 l/m 0 min 0 min 0 W/m 16,1 km/h (3 Bft) 100,00 %
27.11.2019 02:58 10,0 C 8,9 C 8,3 C 94 % 994,5 hPa 0,0 l/m 0 min 0 min 0 W/m 12,9 km/h (3 Bft) 100,00 %
27.11.2019 03:00 10,0 C 8,9 C 8,3 C 94 % 994,4 hPa 0,0 l/m 0 min 0 min 0 W/m 19,3 km/h (3 Bft) 100,00 %
27.11.2019 03:02 9,9 C 8,9 C 8,3 C 94 % 994,4 hPa 0,0 l/m 0 min 0 min 0 W/m 12,9 km/h (3 Bft) 97,87 %
27.11.2019 03:04 9,9 C 8,9 C 8,3 C 94 % 994,3 hPa 0,0 l/m 0 min 0 min 0 W/m 16,1 km/h (3 Bft) 100,00 %
27.11.2019 03:06 9,9 C 8,9 C 8,3 C 94 % 994,3 hPa 0,0 l/m 0 min 0 min 0 W/m 12,9 km/h (3 Bft) 100,00 %
27.11.2019 03:08 9,9 C 8,9 C 8,3 C 94 % 994,3 hPa 0,0 l/m 0 min 0 min 0 W/m 19,3 km/h (3 Bft) 95,74 %
27.11.2019 03:10 9,8 C 8,9 C 8,3 C 94 % 994,2 hPa 0,0 l/m 0 min 0 min 0 W/m 12,9 km/h (3 Bft) 97,83 %
27.11.2019 03:12 9,8 C 8,9 C 8,3 C 94 % 994,2 hPa 0,0 l/m 0 min 0 min 0 W/m 12,9 km/h (3 Bft) 97,87 %
27.11.2019 03:14 9,8 C 8,9 C 8,3 C 94 % 994,2 hPa 0,0 l/m 0 min 0 min 0 W/m 16,1 km/h (3 Bft) 97,87 %
27.11.2019 03:16 9,8 C 8,9 C 8,3 C 94 % 994,2 hPa 0,0 l/m 0 min 0 min 0 W/m 12,9 km/h (3 Bft) 97,87 %
27.11.2019 03:18 9,8 C 8,9 C 8,3 C 94 % 994,2 hPa 0,0 l/m 0 min 0 min 0 W/m 19,3 km/h (3 Bft) 95,74 %
27.11.2019 03:20 9,8 C 9,4 C 8,3 C 94 % 994,3 hPa 0,0 l/m 0 min 0 min 0 W/m 16,1 km/h (3 Bft) 95,74 %
27.11.2019 03:22 9,8 C 9,4 C 8,3 C 94 % 994,1 hPa 0,0 l/m 0 min 0 min 0 W/m 12,9 km/h (3 Bft) 95,65 %
27.11.2019 03:24 9,8 C 9,4 C 8,3 C 94 % 994,2 hPa 0,0 l/m 0 min 0 min 0 W/m 16,1 km/h (3 Bft) 95,74 %
27.11.2019 03:26 9,8 C 9,4 C 8,9 C 95 % 994,2 hPa 0,0 l/m 0 min 0 min 0 W/m 16,1 km/h (3 Bft) 93,62 %
27.11.2019 03:28 9,9 C 9,4 C 8,9 C 95 % 994,1 hPa 0,0 l/m 0 min 2 min 0 W/m 16,1 km/h (3 Bft) 95,74 %
27.11.2019 03:30 9,9 C 9,4 C 8,9 C 95 % 994,1 hPa 0,0 l/m 0 min 0 min 0 W/m 22,5 km/h (4 Bft) 95,74 %
27.11.2019 03:32 9,9 C 9,4 C 8,9 C 95 % 994,1 hPa 0,0 l/m 0 min 0 min 0 W/m 16,1 km/h (3 Bft) 95,65 %
27.11.2019 03:34 9,9 C 9,4 C 8,9 C 95 % 994,0 hPa 0,0 l/m 0 min 0 min 0 W/m 16,1 km/h (3 Bft) 95,74 %
27.11.2019 03:36 9,9 C 9,4 C 8,9 C 95 % 994,0 hPa 0,0 l/m 0 min 0 min 0 W/m 22,5 km/h (4 Bft) 95,74 %
27.11.2019 03:38 9,9 C 9,4 C 8,9 C 95 % 994,0 hPa 0,0 l/m 0 min 0 min 0 W/m 25,7 km/h (4 Bft) 95,74 %
27.11.2019 03:40 10,0 C 9,4 C 8,9 C 95 % 994,0 hPa 0,0 l/m 0 min 2 min 0 W/m 19,3 km/h (3 Bft) 95,74 %
27.11.2019 03:42 10,0 C 8,9 C 8,3 C 95 % 994,0 hPa 0,0 l/m 0 min 2 min 0 W/m 25,7 km/h (4 Bft) 89,36 %
27.11.2019 03:44 10,1 C 8,3 C 8,3 C 95 % 994,0 hPa 0,0 l/m 0 min 2 min 0 W/m 22,5 km/h (4 Bft) 95,65 %
27.11.2019 03:46 10,1 C 8,3 C 8,3 C 95 % 994,0 hPa 0,2 l/m 0 min 2 min 0 W/m 25,7 km/h (4 Bft) 95,74 %
27.11.2019 03:48 10,1 C 8,3 C 7,8 C 95 % 994,1 hPa 0,2 l/m 0 min 2 min 0 W/m 19,3 km/h (3 Bft) 95,74 %
27.11.2019 03:50 10,1 C 8,3 C 7,8 C 95 % 993,9 hPa 0,4 l/m 0 min 2 min 0 W/m 16,1 km/h (3 Bft) 97,87 %
27.11.2019 03:52 10,2 C 8,3 C 7,8 C 95 % 993,9 hPa 0,0 l/m 0 min 2 min 0 W/m 12,9 km/h (3 Bft) 97,87 %
27.11.2019 03:54 10,2 C 8,3 C 7,8 C 95 % 993,8 hPa 0,4 l/m 0 min 2 min 0 W/m 12,9 km/h (3 Bft) 95,74 %
27.11.2019 03:56 10,2 C 8,3 C 7,8 C 95 % 993,7 hPa 0,0 l/m 0 min 2 min 0 W/m 19,3 km/h (3 Bft) 100,00 %
27.11.2019 03:58 10,1 C 8,3 C 7,8 C 95 % 993,7 hPa 0,2 l/m 0 min 2 min 0 W/m 16,1 km/h (3 Bft) 100,00 %
27.11.2019 04:00 10,1 C 8,3 C 7,8 C 95 % 993,8 hPa 0,0 l/m 0 min 2 min 0 W/m 16,1 km/h (3 Bft) 97,87 %
27.11.2019 04:05 10,1 C 8,3 C 7,8 C 96 % 993,5 hPa 0,2 l/m 0 min 5 min 0 W/m 22,5 km/h (4 Bft) 98,48 %
27.11.2019 04:06 10,1 C 8,3 C 7,8 C 96 % 993,5 hPa 0,0 l/m 0 min 1 min 0 W/m 12,9 km/h (3 Bft) 95,83 %
27.11.2019 04:08 10,1 C 8,3 C 7,8 C 96 % 993,5 hPa 0,2 l/m 0 min 2 min 0 W/m 16,1 km/h (3 Bft) 97,83 %
27.11.2019 04:10 10,1 C 8,3 C 7,8 C 96 % 993,4 hPa 0,0 l/m 0 min 2 min 0 W/m 22,5 km/h (4 Bft) 97,87 %
27.11.2019 04:12 10,1 C 8,3 C 7,8 C 96 % 993,2 hPa 0,2 l/m 0 min 2 min 0 W/m 22,5 km/h (4 Bft) 97,87 %
27.11.2019 04:14 10,0 C 8,3 C 7,8 C 96 % 993,2 hPa 0,0 l/m 0 min 2 min 0 W/m 29,0 km/h (5 Bft) 97,87 %
27.11.2019 04:16 9,9 C 8,3 C 7,8 C 96 % 993,2 hPa 0,0 l/m 0 min 2 min 0 W/m 29,0 km/h (5 Bft) 100,00 %
27.11.2019 04:18 9,9 C 8,3 C 7,8 C 96 % 993,2 hPa 0,0 l/m 0 min 2 min 0 W/m 19,3 km/h (3 Bft) 100,00 %
27.11.2019 04:20 9,9 C 8,3 C 7,8 C 96 % 993,2 hPa 0,2 l/m 0 min 2 min 0 W/m 25,7 km/h (4 Bft) 97,83 %
27.11.2019 04:22 9,9 C 8,3 C 7,8 C 96 % 993,2 hPa 0,0 l/m 0 min 2 min 0 W/m 22,5 km/h (4 Bft) 100,00 %
27.11.2019 04:24 9,9 C 8,3 C 7,8 C 96 % 993,1 hPa 0,0 l/m 0 min 2 min 0 W/m 19,3 km/h (3 Bft) 100,00 %
27.11.2019 04:26 9,8 C 8,3 C 7,8 C 96 % 993,1 hPa 0,0 l/m 0 min 0 min 0 W/m 29,0 km/h (5 Bft) 95,74 %
27.11.2019 04:28 9,8 C 8,3 C 7,8 C 96 % 993,1 hPa 0,0 l/m 0 min 2 min 0 W/m 35,4 km/h (5 Bft) 100,00 %
27.11.2019 04:30 9,8 C 8,3 C 7,8 C 96 % 993,1 hPa 0,0 l/m 0 min 2 min 0 W/m 19,3 km/h (3 Bft) 95,65 %
27.11.2019 04:32 9,8 C 8,3 C 7,8 C 96 % 993,0 hPa 0,0 l/m 0 min 2 min 0 W/m 22,5 km/h (4 Bft) 95,74 %
27.11.2019 04:34 9,8 C 8,3 C 7,8 C 96 % 992,9 hPa 0,0 l/m 0 min 2 min 0 W/m 22,5 km/h (4 Bft) 100,00 %
27.11.2019 04:36 9,8 C 8,3 C 7,8 C 97 % 992,8 hPa 0,0 l/m 0 min 2 min 0 W/m 25,7 km/h (4 Bft) 100,00 %
27.11.2019 04:38 9,8 C 8,3 C 7,8 C 97 % 992,9 hPa 0,0 l/m 0 min 2 min 0 W/m 19,3 km/h (3 Bft) 100,00 %
27.11.2019 04:40 9,8 C 8,3 C 7,8 C 97 % 992,8 hPa 0,0 l/m 0 min 2 min 0 W/m 19,3 km/h (3 Bft) 95,74 %
27.11.2019 04:42 9,8 C 8,3 C 7,8 C 97 % 992,8 hPa 0,0 l/m 0 min 2 min 0 W/m 19,3 km/h (3 Bft) 97,83 %
27.11.2019 04:44 9,8 C 8,3 C 7,8 C 97 % 992,7 hPa 0,0 l/m 0 min 0 min 0 W/m 25,7 km/h (4 Bft) 100,00 %
27.11.2019 04:46 9,8 C 8,3 C 7,8 C 97 % 992,6 hPa 0,0 l/m 0 min 0 min 0 W/m 19,3 km/h (3 Bft) 95,74 %
27.11.2019 04:48 9,8 C 8,3 C 7,8 C 97 % 992,7 hPa 0,0 l/m 0 min 0 min 0 W/m 19,3 km/h (3 Bft) 97,87 %
27.11.2019 04:50 9,8 C 8,3 C 7,8 C 97 % 992,6 hPa 0,0 l/m 0 min 0 min 0 W/m 19,3 km/h (3 Bft) 97,87 %
27.11.2019 04:52 9,8 C 8,3 C 7,8 C 97 % 992,6 hPa 0,0 l/m 0 min 0 min 0 W/m 16,1 km/h (3 Bft) 97,87 %
27.11.2019 04:54 9,8 C 8,3 C 7,8 C 97 % 992,5 hPa 0,0 l/m 0 min 0 min 0 W/m 19,3 km/h (3 Bft) 95,65 %
27.11.2019 04:56 9,8 C 8,3 C 7,8 C 97 % 992,6 hPa 0,0 l/m 0 min 2 min 0 W/m 22,5 km/h (4 Bft) 97,87 %
27.11.2019 04:58 9,8 C 8,3 C 7,8 C 97 % 992,5 hPa 0,0 l/m 0 min 0 min 0 W/m 22,5 km/h (4 Bft) 97,87 %
27.11.2019 05:00 9,7 C 8,3 C 7,8 C 97 % 992,4 hPa 0,0 l/m 0 min 2 min 0 W/m 25,7 km/h (4 Bft) 97,92 %
27.11.2019 05:02 9,7 C 8,3 C 7,8 C 97 % 992,5 hPa 0,0 l/m 0 min 0 min 0 W/m 19,3 km/h (3 Bft) 97,83 %
27.11.2019 05:04 9,8 C 8,3 C 7,8 C 97 % 992,4 hPa 0,0 l/m 0 min 2 min 0 W/m 25,7 km/h (4 Bft) 97,87 %
27.11.2019 05:06 9,7 C 8,3 C 7,8 C 97 % 992,2 hPa 0,0 l/m 0 min 0 min 0 W/m 22,5 km/h (4 Bft) 97,87 %
27.11.2019 05:08 9,7 C 8,3 C 7,8 C 97 % 992,1 hPa 0,0 l/m 0 min 0 min 0 W/m 19,3 km/h (3 Bft) 97,83 %
27.11.2019 05:10 9,7 C 8,3 C 7,8 C 97 % 992,0 hPa 0,0 l/m 0 min 2 min 0 W/m 16,1 km/h (3 Bft) 95,74 %
27.11.2019 05:12 9,7 C 8,3 C 7,8 C 98 % 992,2 hPa 0,0 l/m 0 min 2 min 0 W/m 19,3 km/h (3 Bft) 97,87 %
27.11.2019 05:14 9,7 C 8,3 C 7,8 C 98 % 992,2 hPa 0,0 l/m 0 min 0 min 0 W/m 29,0 km/h (5 Bft) 97,87 %
27.11.2019 05:16 9,7 C 8,3 C 7,8 C 98 % 992,1 hPa 0,0 l/m 0 min 0 min 0 W/m 22,5 km/h (4 Bft) 95,74 %
27.11.2019 05:18 9,7 C 8,3 C 8,3 C 98 % 992,1 hPa 0,0 l/m 0 min 0 min 0 W/m 22,5 km/h (4 Bft) 97,83 %
27.11.2019 05:20 9,7 C 8,3 C 7,8 C 98 % 992,0 hPa 0,0 l/m 0 min 0 min 0 W/m 19,3 km/h (3 Bft) 95,74 %
27.11.2019 05:22 9,7 C 8,3 C 7,8 C 98 % 991,9 hPa 0,0 l/m 0 min 0 min 0 W/m 19,3 km/h (3 Bft) 97,87 %
27.11.2019 05:24 9,7 C 8,3 C 7,8 C 98 % 991,9 hPa 0,0 l/m 0 min 0 min 0 W/m 25,7 km/h (4 Bft) 97,87 %
27.11.2019 05:26 9,7 C 8,3 C 7,8 C 98 % 991,8 hPa 0,0 l/m 0 min 0 min 0 W/m 35,4 km/h (5 Bft) 97,87 %
27.11.2019 05:28 9,7 C 8,3 C 7,8 C 97 % 991,8 hPa 0,0 l/m 0 min 0 min 0 W/m 35,4 km/h (5 Bft) 97,83 %
27.11.2019 05:30 9,7 C 8,3 C 7,8 C 97 % 991,9 hPa 0,0 l/m 0 min 0 min 0 W/m 25,7 km/h (4 Bft) 97,87 %
27.11.2019 05:32 9,7 C 8,3 C 7,8 C 97 % 991,8 hPa 0,0 l/m 0 min 0 min 0 W/m 22,5 km/h (4 Bft) 97,87 %
27.11.2019 05:34 9,7 C 8,3 C 7,8 C 97 % 991,7 hPa 0,0 l/m 0 min 0 min 0 W/m 25,7 km/h (4 Bft) 97,87 %
27.11.2019 05:36 9,7 C 8,3 C 7,8 C 97 % 991,6 hPa 0,0 l/m 0 min 0 min 0 W/m 25,7 km/h (4 Bft) 100,00 %
27.11.2019 05:38 9,7 C 8,3 C 7,8 C 97 % 991,7 hPa 0,0 l/m 0 min 0 min 0 W/m 25,7 km/h (4 Bft) 100,00 %
27.11.2019 05:40 9,7 C 8,3 C 7,8 C 97 % 991,7 hPa 0,0 l/m 0 min 0 min 0 W/m 29,0 km/h (5 Bft) 100,00 %
27.11.2019 05:42 9,7 C 8,3 C 7,8 C 97 % 991,6 hPa 0,0 l/m 0 min 0 min 0 W/m 25,7 km/h (4 Bft) 100,00 %
27.11.2019 05:44 9,6 C 8,3 C 7,8 C 97 % 991,6 hPa 0,0 l/m 0 min 0 min 0 W/m 19,3 km/h (3 Bft) 95,74 %
27.11.2019 05:46 9,6 C 8,3 C 7,8 C 97 % 991,5 hPa 0,0 l/m 0 min 0 min 0 W/m 19,3 km/h (3 Bft) 95,74 %
27.11.2019 05:48 9,6 C 8,3 C 7,8 C 97 % 991,4 hPa 0,0 l/m 0 min 0 min 0 W/m 22,5 km/h (4 Bft) 97,87 %
27.11.2019 05:50 9,6 C 8,3 C 7,8 C 97 % 991,4 hPa 0,0 l/m 0 min 0 min 0 W/m 19,3 km/h (3 Bft) 97,87 %
27.11.2019 05:52 9,6 C 8,3 C 7,8 C 97 % 991,3 hPa 0,0 l/m 0 min 0 min 0 W/m 19,3 km/h (3 Bft) 93,48 %
27.11.2019 05:54 9,6 C 8,3 C 7,8 C 97 % 991,2 hPa 0,0 l/m 0 min 0 min 0 W/m 19,3 km/h (3 Bft) 95,74 %
27.11.2019 05:56 9,6 C 8,3 C 7,8 C 97 % 991,1 hPa 0,0 l/m 0 min 0 min 0 W/m 19,3 km/h (3 Bft) 97,87 %
27.11.2019 05:58 9,6 C 8,3 C 7,8 C 97 % 991,2 hPa 0,0 l/m 0 min 0 min 0 W/m 22,5 km/h (4 Bft) 97,87 %
27.11.2019 06:00 9,6 C 8,3 C 7,8 C 97 % 991,2 hPa 0,0 l/m 0 min 0 min 0 W/m 19,3 km/h (3 Bft) 97,87 %
27.11.2019 06:02 9,6 C 8,3 C 7,8 C 97 % 991,2 hPa 0,0 l/m 0 min 0 min 0 W/m 12,9 km/h (3 Bft) 95,74 %
27.11.2019 06:04 9,6 C 8,3 C 7,8 C 97 % 991,2 hPa 0,0 l/m 0 min 0 min 0 W/m 25,7 km/h (4 Bft) 97,83 %
27.11.2019 06:06 9,6 C 8,3 C 7,8 C 97 % 991,0 hPa 0,0 l/m 0 min 0 min 0 W/m 19,3 km/h (3 Bft) 97,87 %
27.11.2019 06:08 9,6 C 8,3 C 7,8 C 97 % 991,0 hPa 0,0 l/m 0 min 0 min 0 W/m 29,0 km/h (5 Bft) 97,87 %
27.11.2019 06:10 9,6 C 8,3 C 7,8 C 97 % 991,0 hPa 0,0 l/m 0 min 0 min 0 W/m 16,1 km/h (3 Bft) 97,87 %
27.11.2019 06:12 9,6 C 8,3 C 7,8 C 97 % 991,0 hPa 0,0 l/m 0 min 0 min 0 W/m 25,7 km/h (4 Bft) 97,87 %
27.11.2019 06:14 9,6 C 8,3 C 7,8 C 97 % 991,0 hPa 0,0 l/m 0 min 0 min 0 W/m 19,3 km/h (3 Bft) 97,87 %
27.11.2019 06:16 9,6 C 8,3 C 7,8 C 97 % 991,0 hPa 0,0 l/m 0 min 0 min 0 W/m 29,0 km/h (5 Bft) 97,83 %
27.11.2019 06:18 9,6 C 8,3 C 7,8 C 97 % 990,9 hPa 0,0 l/m 0 min 0 min 0 W/m 16,1 km/h (3 Bft) 95,74 %
27.11.2019 06:20 9,6 C 8,3 C 7,8 C 97 % 991,0 hPa 0,0 l/m 0 min 0 min 0 W/m 19,3 km/h (3 Bft) 97,87 %
27.11.2019 06:22 9,6 C 8,3 C 7,8 C 97 % 990,9 hPa 0,0 l/m 0 min 0 min 0 W/m 16,1 km/h (3 Bft) 95,74 %
27.11.2019 06:24 9,6 C 8,3 C 7,8 C 97 % 990,9 hPa 0,0 l/m 0 min 0 min 0 W/m 25,7 km/h (4 Bft) 95,74 %
27.11.2019 06:26 9,5 C 8,3 C 7,8 C 97 % 990,9 hPa 0,0 l/m 0 min 0 min 0 W/m 25,7 km/h (4 Bft) 97,87 %
27.11.2019 06:28 9,6 C 8,3 C 7,8 C 97 % 990,9 hPa 0,0 l/m 0 min 0 min 0 W/m 19,3 km/h (3 Bft) 97,83 %
27.11.2019 06:30 9,6 C 8,3 C 7,8 C 97 % 990,9 hPa 0,0 l/m 0 min 2 min 0 W/m 22,5 km/h (4 Bft) 97,87 %
27.11.2019 06:32 9,5 C 8,3 C 7,8 C 97 % 990,9 hPa 0,0 l/m 0 min 2 min 0 W/m 22,5 km/h (4 Bft) 100,00 %
27.11.2019 06:34 9,6 C 8,3 C 7,8 C 97 % 990,9 hPa 0,0 l/m 0 min 0 min 0 W/m 25,7 km/h (4 Bft) 100,00 %
27.11.2019 06:36 9,6 C 8,3 C 7,8 C 97 % 990,8 hPa 0,0 l/m 0 min 2 min 0 W/m 22,5 km/h (4 Bft) 100,00 %
27.11.2019 06:38 9,6 C 8,3 C 7,8 C 97 % 990,8 hPa 0,0 l/m 0 min 2 min 0 W/m 25,7 km/h (4 Bft) 100,00 %
27.11.2019 06:40 9,6 C 8,3 C 7,8 C 97 % 990,7 hPa 0,2 l/m 0 min 2 min 0 W/m 19,3 km/h (3 Bft) 97,87 %
27.11.2019 06:42 9,6 C 8,3 C 7,8 C 97 % 990,6 hPa 0,0 l/m 0 min 2 min 0 W/m 22,5 km/h (4 Bft) 97,92 %
27.11.2019 06:44 9,6 C 8,3 C 7,8 C 97 % 990,4 hPa 0,0 l/m 0 min 2 min 0 W/m 29,0 km/h (5 Bft) 97,92 %
27.11.2019 06:46 9,6 C 8,3 C 7,8 C 97 % 990,4 hPa 0,0 l/m 0 min 2 min 0 W/m 19,3 km/h (3 Bft) 97,92 %
27.11.2019 06:48 9,6 C 8,3 C 7,8 C 97 % 990,4 hPa 0,0 l/m 0 min 2 min 0 W/m 22,5 km/h (4 Bft) 97,87 %
27.11.2019 06:50 9,6 C 8,3 C 7,8 C 97 % 990,5 hPa 0,0 l/m 0 min 2 min 0 W/m 22,5 km/h (4 Bft) 95,74 %
27.11.2019 06:52 9,6 C 8,3 C 7,8 C 97 % 990,6 hPa 0,0 l/m 0 min 2 min 0 W/m 16,1 km/h (3 Bft) 97,92 %
27.11.2019 06:54 9,6 C 8,3 C 7,8 C 97 % 990,6 hPa 0,0 l/m 0 min 2 min 0 W/m 22,5 km/h (4 Bft) 97,87 %
27.11.2019 06:56 9,6 C 8,3 C 7,8 C 97 % 990,6 hPa 0,0 l/m 0 min 2 min 0 W/m 29,0 km/h (5 Bft) 97,87 %
27.11.2019 06:58 9,6 C 8,3 C 7,8 C 97 % 990,6 hPa 0,0 l/m 0 min 2 min 0 W/m 22,5 km/h (4 Bft) 97,87 %
27.11.2019 07:00 9,6 C 8,3 C 7,8 C 97 % 990,6 hPa 0,0 l/m 0 min 0 min 0 W/m 19,3 km/h (3 Bft) 97,87 %
27.11.2019 07:02 9,6 C 8,3 C 7,8 C 97 % 990,5 hPa 0,0 l/m 0 min 0 min 0 W/m 22,5 km/h (4 Bft) 97,83 %
27.11.2019 07:04 9,5 C 8,3 C 7,8 C 97 % 990,5 hPa 0,0 l/m 0 min 0 min 0 W/m 29,0 km/h (5 Bft) 97,73 %
27.11.2019 07:06 9,5 C 8,3 C 7,8 C 97 % 990,5 hPa 0,0 l/m 0 min 2 min 0 W/m 25,7 km/h (4 Bft) 95,83 %
27.11.2019 07:08 9,6 C 8,3 C 7,8 C 97 % 990,6 hPa 0,0 l/m 0 min 2 min 0 W/m 22,5 km/h (4 Bft) 97,92 %
27.11.2019 07:10 9,5 C 8,3 C 7,8 C 97 % 990,6 hPa 0,0 l/m 0 min 0 min 0 W/m 19,3 km/h (3 Bft) 97,87 %
27.11.2019 07:12 9,5 C 8,3 C 7,8 C 97 % 990,6 hPa 0,0 l/m 0 min 2 min 0 W/m 29,0 km/h (5 Bft) 95,83 %
27.11.2019 07:14 9,5 C 8,3 C 7,8 C 97 % 990,6 hPa 0,0 l/m 0 min 2 min 0 W/m 19,3 km/h (3 Bft) 95,65 %
27.11.2019 07:16 9,5 C 8,3 C 7,8 C 97 % 990,6 hPa 0,0 l/m 0 min 0 min 0 W/m 29,0 km/h (5 Bft) 95,74 %
27.11.2019 07:18 9,5 C 8,3 C 7,8 C 97 % 990,6 hPa 0,0 l/m 0 min 0 min 0 W/m 25,7 km/h (4 Bft) 95,74 %
27.11.2019 07:20 9,5 C 8,3 C 7,8 C 96 % 990,6 hPa 0,0 l/m 0 min 2 min 0 W/m 35,4 km/h (5 Bft) 97,87 %
27.11.2019 07:22 9,5 C 8,3 C 7,8 C 96 % 990,6 hPa 0,0 l/m 0 min 0 min 0 W/m 29,0 km/h (5 Bft) 95,74 %
27.11.2019 07:24 9,5 C 8,3 C 7,8 C 96 % 990,6 hPa 0,0 l/m 0 min 0 min 0 W/m 29,0 km/h (5 Bft) 93,62 %
27.11.2019 07:26 9,5 C 8,3 C 7,8 C 96 % 990,5 hPa 0,0 l/m 0 min 0 min 0 W/m 25,7 km/h (4 Bft) 95,65 %
27.11.2019 07:28 9,6 C 8,3 C 7,8 C 96 % 990,6 hPa 0,0 l/m 0 min 0 min 0 W/m 29,0 km/h (5 Bft) 97,62 %
27.11.2019 07:30 9,5 C 8,3 C 7,8 C 96 % 990,6 hPa 0,0 l/m 0 min 0 min 0 W/m 29,0 km/h (5 Bft) 95,83 %
27.11.2019 07:32 9,6 C 8,3 C 7,8 C 96 % 990,5 hPa 0,0 l/m 0 min 0 min 0 W/m 25,7 km/h (4 Bft) 95,92 %
27.11.2019 07:34 9,6 C 8,3 C 7,8 C 96 % 990,6 hPa 0,0 l/m 0 min 0 min 0 W/m 38,6 km/h (5 Bft) 95,74 %
27.11.2019 07:36 9,6 C 8,3 C 7,8 C 96 % 990,6 hPa 0,0 l/m 0 min 0 min 0 W/m 25,7 km/h (4 Bft) 97,92 %
27.11.2019 07:38 9,6 C 8,3 C 7,8 C 96 % 990,6 hPa 0,0 l/m 0 min 0 min 0 W/m 25,7 km/h (4 Bft) 95,74 %
27.11.2019 07:40 9,6 C 8,3 C 7,8 C 96 % 990,6 hPa 0,0 l/m 0 min 0 min 0 W/m 22,5 km/h (4 Bft) 97,87 %
27.11.2019 07:42 9,6 C 8,3 C 7,8 C 96 % 990,7 hPa 0,0 l/m 0 min 0 min 0 W/m 32,2 km/h (5 Bft) 95,74 %
27.11.2019 07:44 9,6 C 8,3 C 7,8 C 96 % 990,7 hPa 0,0 l/m 0 min 0 min 0 W/m 25,7 km/h (4 Bft) 95,74 %
27.11.2019 07:46 9,6 C 8,3 C 7,8 C 96 % 990,8 hPa 0,0 l/m 0 min 0 min 0 W/m 35,4 km/h (5 Bft) 97,87 %
27.11.2019 07:48 9,6 C 8,3 C 7,8 C 96 % 990,9 hPa 0,0 l/m 0 min 0 min 0 W/m 25,7 km/h (4 Bft) 97,83 %
27.11.2019 07:50 9,6 C 8,3 C 7,8 C 96 % 991,0 hPa 0,0 l/m 0 min 0 min 0 W/m 25,7 km/h (4 Bft) 97,62 %
27.11.2019 07:52 9,6 C 8,3 C 7,8 C 96 % 991,0 hPa 0,0 l/m 0 min 0 min 0 W/m 16,1 km/h (3 Bft) 97,92 %
27.11.2019 07:54 9,6 C 8,3 C 7,8 C 96 % 991,0 hPa 0,0 l/m 0 min 0 min 0 W/m 19,3 km/h (3 Bft) 95,83 %
27.11.2019 07:56 9,6 C 8,3 C 7,8 C 95 % 991,0 hPa 0,0 l/m 0 min 0 min 0 W/m 25,7 km/h (4 Bft) 97,83 %
27.11.2019 07:58 9,6 C 8,3 C 7,8 C 95 % 991,1 hPa 0,0 l/m 0 min 0 min 0 W/m 22,5 km/h (4 Bft) 98,00 %
27.11.2019 08:00 9,6 C 8,3 C 7,8 C 95 % 991,1 hPa 0,0 l/m 0 min 0 min 0 W/m 22,5 km/h (4 Bft) 97,87 %
27.11.2019 08:02 9,7 C 8,3 C 7,8 C 95 % 991,1 hPa 0,0 l/m 0 min 0 min 0 W/m 19,3 km/h (3 Bft) 95,74 %
27.11.2019 08:04 9,7 C 8,3 C 7,8 C 95 % 991,1 hPa 0,0 l/m 0 min 0 min 0 W/m 16,1 km/h (3 Bft) 97,67 %
27.11.2019 08:06 9,7 C 8,3 C 7,8 C 96 % 991,1 hPa 0,0 l/m 0 min 0 min 0 W/m 16,1 km/h (3 Bft) 97,92 %
27.11.2019 08:08 9,7 C 8,3 C 7,8 C 95 % 991,1 hPa 0,0 l/m 0 min 0 min 0 W/m 19,3 km/h (3 Bft) 97,87 %
27.11.2019 08:10 9,7 C 8,3 C 7,8 C 95 % 991,2 hPa 0,0 l/m 0 min 0 min 0 W/m 19,3 km/h (3 Bft) 97,92 %
27.11.2019 08:12 9,7 C 8,3 C 7,8 C 95 % 991,3 hPa 0,0 l/m 0 min 0 min 0 W/m 19,3 km/h (3 Bft) 95,74 %
27.11.2019 08:14 9,7 C 8,3 C 7,8 C 95 % 991,3 hPa 0,0 l/m 0 min 0 min 0 W/m 19,3 km/h (3 Bft) 97,92 %
27.11.2019 08:16 9,7 C 8,9 C 7,8 C 95 % 991,3 hPa 0,0 l/m 0 min 0 min 0 W/m 22,5 km/h (4 Bft) 97,87 %
27.11.2019 08:18 9,8 C 8,9 C 8,3 C 95 % 991,3 hPa 0,0 l/m 0 min 0 min 0 W/m 22,5 km/h (4 Bft) 97,87 %
27.11.2019 08:20 9,8 C 8,9 C 8,3 C 95 % 991,3 hPa 0,0 l/m 0 min 0 min 0 W/m 16,1 km/h (3 Bft) 95,74 %
27.11.2019 08:22 9,8 C 8,9 C 8,3 C 95 % 991,2 hPa 0,0 l/m 0 min 0 min 0 W/m 19,3 km/h (3 Bft) 97,87 %
27.11.2019 08:24 9,8 C 8,9 C 8,3 C 95 % 991,3 hPa 0,0 l/m 0 min 0 min 0 W/m 29,0 km/h (5 Bft) 95,65 %
27.11.2019 08:26 9,8 C 8,9 C 8,3 C 95 % 991,3 hPa 0,0 l/m 0 min 0 min 0 W/m 16,1 km/h (3 Bft) 97,87 %
27.11.2019 08:28 9,8 C 8,9 C 8,3 C 95 % 991,3 hPa 0,0 l/m 0 min 0 min 0 W/m 22,5 km/h (4 Bft) 97,87 %
27.11.2019 08:30 9,9 C 8,9 C 8,3 C 95 % 991,3 hPa 0,0 l/m 0 min 0 min 0 W/m 19,3 km/h (3 Bft) 97,62 %
27.11.2019 08:32 9,9 C 8,9 C 8,3 C 95 % 991,3 hPa 0,0 l/m 0 min 0 min 0 W/m 16,1 km/h (3 Bft) 97,83 %
27.11.2019 08:34 9,9 C 8,9 C 8,3 C 95 % 991,4 hPa 0,0 l/m 0 min 0 min 3 W/m 19,3 km/h (3 Bft) 97,92 %
27.11.2019 08:36 9,9 C 8,9 C 8,3 C 95 % 991,4 hPa 0,0 l/m 0 min 0 min 6 W/m 29,0 km/h (5 Bft) 95,83 %
27.11.2019 08:38 10,0 C 8,9 C 8,3 C 95 % 991,3 hPa 0,0 l/m 0 min 0 min 8 W/m 12,9 km/h (3 Bft) 95,74 %
27.11.2019 08:40 10,0 C 8,9 C 8,3 C 95 % 991,3 hPa 0,0 l/m 0 min 0 min 10 W/m 16,1 km/h (3 Bft) 97,92 %
27.11.2019 08:42 10,1 C 8,9 C 8,3 C 95 % 991,4 hPa 0,0 l/m 0 min 0 min 10 W/m 12,9 km/h (3 Bft) 97,87 %
27.11.2019 08:44 10,1 C 8,9 C 8,3 C 95 % 991,4 hPa 0,0 l/m 0 min 0 min 7 W/m 12,9 km/h (3 Bft) 97,92 %
27.11.2019 08:46 10,1 C 9,4 C 8,3 C 95 % 991,5 hPa 0,0 l/m 0 min 0 min 5 W/m 16,1 km/h (3 Bft) 97,87 %
27.11.2019 08:48 10,1 C 9,4 C 8,3 C 95 % 991,4 hPa 0,0 l/m 0 min 0 min 6 W/m 12,9 km/h (3 Bft) 95,74 %
27.11.2019 08:50 10,2 C 9,4 C 8,3 C 95 % 991,4 hPa 0,0 l/m 0 min 0 min 9 W/m 19,3 km/h (3 Bft) 97,87 %
27.11.2019 08:52 10,2 C 9,4 C 8,3 C 95 % 991,4 hPa 0,0 l/m 0 min 0 min 9 W/m 16,1 km/h (3 Bft) 97,87 %
27.11.2019 08:54 10,2 C 9,4 C 8,3 C 95 % 991,4 hPa 0,0 l/m 0 min 0 min 12 W/m 16,1 km/h (3 Bft) 95,74 %
27.11.2019 08:56 10,2 C 9,4 C 8,3 C 95 % 991,4 hPa 0,0 l/m 0 min 0 min 14 W/m 16,1 km/h (3 Bft) 95,74 %
27.11.2019 08:58 10,3 C 9,4 C 8,3 C 95 % 991,4 hPa 0,0 l/m 0 min 0 min 17 W/m 16,1 km/h (3 Bft) 97,67 %
27.11.2019 09:00 10,3 C 9,4 C 8,3 C 95 % 991,4 hPa 0,0 l/m 0 min 0 min 19 W/m 16,1 km/h (3 Bft) 97,92 %
27.11.2019 09:02 10,3 C 10,0 C 8,3 C 94 % 991,5 hPa 0,0 l/m 0 min 0 min 20 W/m 16,1 km/h (3 Bft) 95,92 %
27.11.2019 09:04 10,3 C 10,0 C 8,3 C 94 % 991,4 hPa 0,0 l/m 0 min 0 min 22 W/m 12,9 km/h (3 Bft) 100,00 %
27.11.2019 09:06 10,3 C 10,0 C 8,9 C 94 % 991,4 hPa 0,0 l/m 0 min 0 min 26 W/m 16,1 km/h (3 Bft) 97,87 %
27.11.2019 09:08 10,3 C 10,0 C 8,9 C 94 % 991,4 hPa 0,0 l/m 0 min 0 min 28 W/m 19,3 km/h (3 Bft) 97,92 %
27.11.2019 09:10 10,3 C 10,0 C 8,9 C 94 % 991,5 hPa 0,0 l/m 0 min 0 min 27 W/m 22,5 km/h (4 Bft) 97,92 %
27.11.2019 09:12 10,4 C 10,0 C 8,9 C 94 % 991,5 hPa 0,0 l/m 0 min 0 min 26 W/m 16,1 km/h (3 Bft) 100,00 %
27.11.2019 09:14 10,4 C 10,0 C 8,9 C 94 % 991,5 hPa 0,0 l/m 0 min 0 min 25 W/m 19,3 km/h (3 Bft) 100,00 %
27.11.2019 09:16 10,4 C 10,0 C 8,9 C 94 % 991,4 hPa 0,0 l/m 0 min 0 min 26 W/m 16,1 km/h (3 Bft) 97,87 %
27.11.2019 09:18 10,4 C 10,0 C 8,9 C 94 % 991,4 hPa 0,0 l/m 0 min 0 min 29 W/m 19,3 km/h (3 Bft) 100,00 %
27.11.2019 09:20 10,4 C 10,0 C 8,9 C 94 % 991,4 hPa 0,0 l/m 0 min 0 min 32 W/m 16,1 km/h (3 Bft) 100,00 %
27.11.2019 09:22 10,4 C 10,0 C 8,9 C 93 % 991,4 hPa 0,0 l/m 0 min 0 min 33 W/m 12,9 km/h (3 Bft) 100,00 %
27.11.2019 09:24 10,4 C 10,0 C 8,9 C 93 % 991,4 hPa 0,0 l/m 0 min 0 min 32 W/m 19,3 km/h (3 Bft) 100,00 %
27.11.2019 09:26 10,4 C 10,0 C 8,9 C 93 % 991,5 hPa 0,0 l/m 0 min 0 min 29 W/m 19,3 km/h (3 Bft) 100,00 %
27.11.2019 09:28 10,4 C 10,0 C 8,9 C 93 % 991,5 hPa 0,0 l/m 0 min 0 min 26 W/m 16,1 km/h (3 Bft) 100,00 %
27.11.2019 09:30 10,4 C 10,0 C 8,9 C 93 % 991,5 hPa 0,0 l/m 0 min 0 min 26 W/m 16,1 km/h (3 Bft) 100,00 %
27.11.2019 09:32 10,4 C 10,0 C 8,9 C 93 % 991,6 hPa 0,0 l/m 0 min 0 min 25 W/m 16,1 km/h (3 Bft) 95,83 %
27.11.2019 09:34 10,4 C 10,0 C 8,9 C 93 % 991,6 hPa 0,0 l/m 0 min 0 min 26 W/m 12,9 km/h (3 Bft) 100,00 %
27.11.2019 09:36 10,5 C 10,0 C 8,9 C 93 % 991,7 hPa 0,0 l/m 0 min 0 min 30 W/m 19,3 km/h (3 Bft) 97,87 %
27.11.2019 09:38 10,5 C 10,0 C 9,4 C 93 % 991,6 hPa 0,0 l/m 0 min 0 min 30 W/m 16,1 km/h (3 Bft) 97,87 %
27.11.2019 09:40 10,5 C 10,6 C 9,4 C 93 % 991,6 hPa 0,0 l/m 0 min 0 min 28 W/m 19,3 km/h (3 Bft) 100,00 %
27.11.2019 09:42 10,5 C 10,6 C 9,4 C 93 % 991,7 hPa 0,0 l/m 0 min 0 min 24 W/m 25,7 km/h (4 Bft) 100,00 %
27.11.2019 09:44 10,6 C 10,6 C 9,4 C 93 % 991,6 hPa 0,0 l/m 0 min 0 min 21 W/m 16,1 km/h (3 Bft) 100,00 %
27.11.2019 09:46 10,6 C 10,6 C 9,4 C 93 % 991,6 hPa 0,0 l/m 0 min 0 min 24 W/m 16,1 km/h (3 Bft) 100,00 %
27.11.2019 09:48 10,6 C 10,6 C 9,4 C 93 % 991,6 hPa 0,0 l/m 0 min 0 min 28 W/m 16,1 km/h (3 Bft) 100,00 %
27.11.2019 09:50 10,6 C 10,6 C 9,4 C 93 % 991,5 hPa 0,0 l/m 0 min 0 min 38 W/m 16,1 km/h (3 Bft) 100,00 %
27.11.2019 09:52 10,6 C 10,6 C 9,4 C 93 % 991,4 hPa 0,0 l/m 0 min 0 min 60 W/m 16,1 km/h (3 Bft) 100,00 %
27.11.2019 09:54 10,6 C 10,6 C 9,4 C 93 % 991,3 hPa 0,0 l/m 0 min 0 min 74 W/m 16,1 km/h (3 Bft) 100,00 %
27.11.2019 09:56 10,7 C 10,6 C 9,4 C 93 % 991,4 hPa 0,0 l/m 0 min 0 min 75 W/m 19,3 km/h (3 Bft) 97,92 %
27.11.2019 09:58 10,7 C 10,6 C 9,4 C 93 % 991,4 hPa 0,0 l/m 0 min 0 min 70 W/m 19,3 km/h (3 Bft) 97,92 %
27.11.2019 10:00 10,7 C 10,6 C 9,4 C 93 % 991,4 hPa 0,0 l/m 0 min 0 min 63 W/m 16,1 km/h (3 Bft) 95,74 %
27.11.2019 10:02 10,7 C 10,6 C 9,4 C 92 % 991,4 hPa 0,0 l/m 0 min 0 min 58 W/m 19,3 km/h (3 Bft) 95,74 %
27.11.2019 10:04 10,8 C 10,6 C 9,4 C 92 % 991,3 hPa 0,0 l/m 0 min 0 min 54 W/m 25,7 km/h (4 Bft) 95,35 %
27.11.2019 10:06 10,8 C 10,6 C 9,4 C 92 % 991,4 hPa 0,0 l/m 0 min 0 min 60 W/m 16,1 km/h (3 Bft) 97,92 %
27.11.2019 10:08 10,8 C 10,6 C 9,4 C 92 % 991,4 hPa 0,0 l/m 0 min 0 min 63 W/m 22,5 km/h (4 Bft) 97,92 %
27.11.2019 10:10 10,8 C 10,6 C 9,4 C 92 % 991,4 hPa 0,0 l/m 0 min 0 min 58 W/m 16,1 km/h (3 Bft) 100,00 %
27.11.2019 10:15 10,9 C 10,6 C 9,4 C 92 % 991,6 hPa 0,0 l/m 0 min 0 min 34 W/m 25,7 km/h (4 Bft) 100,00 %
27.11.2019 10:16 10,9 C 10,6 C 9,4 C 92 % 991,6 hPa 0,0 l/m 0 min 0 min 33 W/m 19,3 km/h (3 Bft) 95,83 %
27.11.2019 10:18 10,9 C 10,6 C 9,4 C 92 % 991,7 hPa 0,0 l/m 0 min 0 min 40 W/m 22,5 km/h (4 Bft) 91,49 %
27.11.2019 10:20 10,9 C 10,6 C 9,4 C 92 % 991,8 hPa 0,0 l/m 0 min 0 min 46 W/m 22,5 km/h (4 Bft) 97,83 %
27.11.2019 10:22 10,9 C 10,6 C 9,4 C 92 % 991,8 hPa 0,0 l/m 0 min 0 min 53 W/m 29,0 km/h (5 Bft) 97,87 %
27.11.2019 10:24 10,9 C 10,6 C 10,0 C 92 % 991,8 hPa 0,0 l/m 0 min 0 min 65 W/m 22,5 km/h (4 Bft) 95,74 %
27.11.2019 10:26 11,0 C 11,1 C 10,0 C 93 % 991,7 hPa 0,0 l/m 0 min 0 min 83 W/m 22,5 km/h (4 Bft) 95,74 %
27.11.2019 10:28 11,0 C 11,1 C 10,0 C 93 % 991,6 hPa 0,0 l/m 0 min 0 min 92 W/m 16,1 km/h (3 Bft) 95,74 %
27.11.2019 10:30 11,0 C 11,1 C 10,0 C 92 % 991,6 hPa 0,0 l/m 0 min 0 min 88 W/m 19,3 km/h (3 Bft) 95,74 %
27.11.2019 10:32 11,1 C 11,1 C 10,0 C 92 % 991,5 hPa 0,0 l/m 0 min 0 min 81 W/m 16,1 km/h (3 Bft) 95,65 %
27.11.2019 10:34 11,1 C 11,1 C 10,0 C 92 % 991,5 hPa 0,0 l/m 0 min 0 min 78 W/m 22,5 km/h (4 Bft) 91,49 %
27.11.2019 10:36 11,1 C 11,1 C 10,0 C 92 % 991,5 hPa 0,0 l/m 0 min 0 min 87 W/m 16,1 km/h (3 Bft) 95,74 %
27.11.2019 10:38 11,1 C 11,1 C 10,0 C 92 % 991,6 hPa 0,0 l/m 0 min 0 min 88 W/m 16,1 km/h (3 Bft) 95,74 %
27.11.2019 10:40 11,1 C 11,1 C 10,6 C 92 % 991,7 hPa 0,0 l/m 0 min 0 min 94 W/m 16,1 km/h (3 Bft) 93,62 %
27.11.2019 10:42 11,1 C 11,1 C 10,6 C 92 % 991,8 hPa 0,0 l/m 0 min 0 min 123 W/m 25,7 km/h (4 Bft) 95,74 %
27.11.2019 10:44 11,2 C 11,7 C 10,6 C 92 % 991,8 hPa 0,0 l/m 2 min 0 min 139 W/m 22,5 km/h (4 Bft) 95,65 %
27.11.2019 10:46 11,2 C 11,1 C 10,6 C 92 % 991,8 hPa 0,0 l/m 0 min 0 min 110 W/m 25,7 km/h (4 Bft) 97,87 %
27.11.2019 10:48 11,2 C 11,1 C 10,6 C 92 % 991,8 hPa 0,0 l/m 0 min 0 min 67 W/m 16,1 km/h (3 Bft) 93,62 %
27.11.2019 10:50 11,2 C 11,1 C 10,0 C 92 % 991,8 hPa 0,0 l/m 0 min 0 min 56 W/m 16,1 km/h (3 Bft) 95,74 %
27.11.2019 10:52 11,2 C 10,6 C 10,0 C 92 % 991,7 hPa 0,0 l/m 0 min 0 min 50 W/m 25,7 km/h (4 Bft) 93,62 %
27.11.2019 10:54 11,3 C 10,6 C 10,0 C 92 % 991,8 hPa 0,0 l/m 0 min 0 min 33 W/m 22,5 km/h (4 Bft) 95,65 %
27.11.2019 10:56 11,3 C 10,0 C 10,0 C 92 % 991,7 hPa 0,0 l/m 0 min 2 min 23 W/m 32,2 km/h (5 Bft) 93,62 %
27.11.2019 10:58 11,3 C 9,4 C 9,4 C 92 % 991,7 hPa 0,0 l/m 0 min 2 min 25 W/m 19,3 km/h (3 Bft) 91,49 %
27.11.2019 11:00 11,3 C 9,4 C 9,4 C 92 % 991,8 hPa 0,0 l/m 0 min 2 min 31 W/m 16,1 km/h (3 Bft) 95,74 %
27.11.2019 11:02 11,3 C 9,4 C 8,9 C 92 % 991,7 hPa 0,0 l/m 0 min 2 min 26 W/m 25,7 km/h (4 Bft) 93,62 %
27.11.2019 11:04 11,3 C 9,4 C 8,9 C 92 % 991,7 hPa 0,0 l/m 0 min 2 min 28 W/m 29,0 km/h (5 Bft) 93,62 %
27.11.2019 11:06 11,3 C 9,4 C 8,9 C 92 % 991,7 hPa 0,2 l/m 0 min 2 min 31 W/m 25,7 km/h (4 Bft) 95,65 %
27.11.2019 11:08 11,3 C 9,4 C 8,9 C 92 % 991,7 hPa 0,0 l/m 0 min 2 min 34 W/m 19,3 km/h (3 Bft) 97,87 %
27.11.2019 11:10 11,2 C 9,4 C 8,9 C 92 % 991,6 hPa 0,0 l/m 0 min 2 min 41 W/m 22,5 km/h (4 Bft) 97,87 %
27.11.2019 11:12 11,2 C 9,4 C 8,9 C 92 % 991,6 hPa 0,0 l/m 0 min 2 min 42 W/m 19,3 km/h (3 Bft) 97,87 %
27.11.2019 11:14 11,2 C 9,4 C 8,9 C 92 % 991,6 hPa 0,2 l/m 0 min 2 min 53 W/m 16,1 km/h (3 Bft) 95,74 %
27.11.2019 11:16 11,2 C 9,4 C 8,9 C 92 % 991,6 hPa 0,0 l/m 0 min 2 min 60 W/m 25,7 km/h (4 Bft) 97,87 %
27.11.2019 11:18 11,2 C 9,4 C 8,9 C 92 % 991,6 hPa 0,2 l/m 0 min 2 min 57 W/m 12,9 km/h (3 Bft) 97,83 %
27.11.2019 11:20 11,2 C 9,4 C 8,9 C 92 % 991,6 hPa 0,0 l/m 0 min 2 min 67 W/m 16,1 km/h (3 Bft) 97,87 %
27.11.2019 11:22 11,2 C 9,4 C 8,9 C 92 % 991,6 hPa 0,0 l/m 0 min 2 min 90 W/m 19,3 km/h (3 Bft) 95,74 %
27.11.2019 11:24 11,2 C 10,0 C 8,9 C 92 % 991,6 hPa 0,0 l/m 0 min 0 min 110 W/m 16,1 km/h (3 Bft) 97,87 %
27.11.2019 11:26 11,2 C 10,0 C 8,9 C 93 % 991,6 hPa 0,0 l/m 0 min 0 min 109 W/m 22,5 km/h (4 Bft) 97,87 %
27.11.2019 11:28 11,2 C 10,0 C 8,9 C 93 % 991,6 hPa 0,0 l/m 0 min 0 min 85 W/m 19,3 km/h (3 Bft) 97,87 %
27.11.2019 11:30 11,3 C 10,0 C 9,4 C 93 % 991,6 hPa 0,0 l/m 2 min 0 min 150 W/m 12,9 km/h (3 Bft) 100,00 %
27.11.2019 11:32 11,2 C 10,0 C 9,4 C 93 % 991,6 hPa 0,0 l/m 0 min 0 min 116 W/m 6,4 km/h (2 Bft) 97,87 %
27.11.2019 11:34 11,2 C 10,0 C 9,4 C 93 % 991,6 hPa 0,0 l/m 0 min 0 min 104 W/m 6,4 km/h (2 Bft) 100,00 %
27.11.2019 11:36 11,3 C 10,0 C 9,4 C 93 % 991,5 hPa 0,0 l/m 0 min 0 min 98 W/m 6,4 km/h (2 Bft) 100,00 %
27.11.2019 11:38 11,3 C 10,0 C 9,4 C 93 % 991,6 hPa 0,0 l/m 0 min 0 min 84 W/m 6,4 km/h (2 Bft) 100,00 %
27.11.2019 11:40 11,3 C 10,0 C 9,4 C 93 % 991,5 hPa 0,0 l/m 0 min 0 min 73 W/m 19,3 km/h (3 Bft) 97,87 %
27.11.2019 11:42 11,2 C 10,0 C 9,4 C 93 % 991,4 hPa 0,0 l/m 0 min 0 min 66 W/m 22,5 km/h (4 Bft) 100,00 %
27.11.2019 11:44 11,2 C 9,4 C 9,4 C 93 % 991,3 hPa 0,0 l/m 0 min 0 min 55 W/m 25,7 km/h (4 Bft) 100,00 %
27.11.2019 11:46 11,2 C 9,4 C 9,4 C 93 % 991,3 hPa 0,0 l/m 0 min 0 min 55 W/m 22,5 km/h (4 Bft) 100,00 %
27.11.2019 11:48 11,2 C 9,4 C 9,4 C 93 % 991,3 hPa 0,0 l/m 0 min 0 min 45 W/m 22,5 km/h (4 Bft) 100,00 %
27.11.2019 11:50 11,2 C 9,4 C 9,4 C 92 % 991,3 hPa 0,0 l/m 0 min 0 min 51 W/m 25,7 km/h (4 Bft) 100,00 %
27.11.2019 11:52 11,2 C 9,4 C 9,4 C 92 % 991,2 hPa 0,0 l/m 0 min 0 min 71 W/m 35,4 km/h (5 Bft) 100,00 %
27.11.2019 11:54 11,2 C 10,0 C 9,4 C 92 % 991,3 hPa 0,0 l/m 0 min 0 min 73 W/m 25,7 km/h (4 Bft) 100,00 %
27.11.2019 11:56 11,2 C 10,0 C 9,4 C 91 % 991,2 hPa 0,0 l/m 0 min 0 min 74 W/m 32,2 km/h (5 Bft) 97,87 %
27.11.2019 11:58 11,3 C 10,0 C 9,4 C 91 % 991,2 hPa 0,0 l/m 0 min 0 min 83 W/m 29,0 km/h (5 Bft) 100,00 %
27.11.2019 12:00 11,3 C 10,0 C 9,4 C 91 % 991,1 hPa 0,0 l/m 0 min 0 min 83 W/m 32,2 km/h (5 Bft) 100,00 %
27.11.2019 12:02 11,3 C 10,0 C 9,4 C 90 % 991,2 hPa 0,0 l/m 0 min 0 min 81 W/m 25,7 km/h (4 Bft) 100,00 %
27.11.2019 12:04 11,3 C 10,0 C 9,4 C 90 % 991,1 hPa 0,0 l/m 0 min 0 min 99 W/m 25,7 km/h (4 Bft) 65,96 %
27.11.2019 12:08 11,4 C 10,6 C 9,4 C 90 % 991,0 hPa 0,0 l/m 0 min 0 min 125 W/m 32,2 km/h (5 Bft) 94,67 %
27.11.2019 12:10 11,4 C 10,6 C 9,4 C 89 % 991,0 hPa 0,0 l/m 2 min 0 min 154 W/m 22,5 km/h (4 Bft) 100,00 %
27.11.2019 12:12 11,5 C 10,6 C 10,0 C 89 % 990,9 hPa 0,0 l/m 0 min 0 min 143 W/m 19,3 km/h (3 Bft) 97,87 %
27.11.2019 12:14 11,5 C 10,6 C 10,0 C 89 % 990,9 hPa 0,0 l/m 0 min 0 min 146 W/m 22,5 km/h (4 Bft) 100,00 %
27.11.2019 12:16 11,6 C 10,6 C 10,0 C 89 % 990,9 hPa 0,0 l/m 0 min 0 min 150 W/m 29,0 km/h (5 Bft) 100,00 %
27.11.2019 12:18 11,6 C 10,6 C 10,0 C 88 % 990,9 hPa 0,0 l/m 0 min 0 min 130 W/m 32,2 km/h (5 Bft) 100,00 %
27.11.2019 12:20 11,7 C 10,6 C 10,0 C 88 % 990,9 hPa 0,0 l/m 0 min 0 min 110 W/m 29,0 km/h (5 Bft) 100,00 %
27.11.2019 12:22 11,7 C 11,1 C 10,0 C 87 % 990,9 hPa 0,0 l/m 2 min 0 min 159 W/m 25,7 km/h (4 Bft) 97,87 %
27.11.2019 12:24 11,8 C 12,2 C 10,0 C 87 % 990,9 hPa 0,0 l/m 2 min 0 min 225 W/m 35,4 km/h (5 Bft) 100,00 %
27.11.2019 12:26 11,8 C 12,8 C 10,0 C 87 % 990,9 hPa 0,0 l/m 2 min 0 min 236 W/m 19,3 km/h (3 Bft) 100,00 %
27.11.2019 12:28 11,9 C 12,8 C 10,0 C 87 % 990,8 hPa 0,0 l/m 2 min 0 min 181 W/m 22,5 km/h (4 Bft) 100,00 %
27.11.2019 12:30 12,0 C 13,3 C 10,6 C 87 % 990,8 hPa 0,0 l/m 2 min 0 min 218 W/m 29,0 km/h (5 Bft) 100,00 %
27.11.2019 12:32 12,1 C 13,3 C 10,6 C 86 % 990,7 hPa 0,0 l/m 2 min 0 min 305 W/m 35,4 km/h (5 Bft) 97,87 %
27.11.2019 12:34 12,2 C 13,3 C 10,6 C 86 % 990,7 hPa 0,0 l/m 2 min 0 min 305 W/m 29,0 km/h (5 Bft) 100,00 %
27.11.2019 12:36 12,3 C 13,3 C 10,6 C 85 % 990,7 hPa 0,0 l/m 2 min 0 min 346 W/m 29,0 km/h (5 Bft) 100,00 %
27.11.2019 12:38 12,4 C 14,4 C 10,6 C 85 % 990,7 hPa 0,0 l/m 2 min 0 min 387 W/m 19,3 km/h (3 Bft) 100,00 %
27.11.2019 12:40 12,5 C 13,9 C 10,6 C 85 % 990,6 hPa 0,0 l/m 2 min 0 min 390 W/m 29,0 km/h (5 Bft) 100,00 %
27.11.2019 12:42 12,6 C 13,3 C 10,6 C 84 % 990,6 hPa 0,0 l/m 2 min 0 min 172 W/m 25,7 km/h (4 Bft) 100,00 %
27.11.2019 12:44 12,7 C 13,9 C 10,6 C 83 % 990,7 hPa 0,0 l/m 2 min 0 min 199 W/m 35,4 km/h (5 Bft) 97,87 %
27.11.2019 12:46 12,7 C 13,3 C 10,6 C 83 % 990,7 hPa 0,0 l/m 2 min 0 min 198 W/m 35,4 km/h (5 Bft) 97,87 %
27.11.2019 12:48 12,7 C 12,8 C 10,6 C 83 % 990,6 hPa 0,0 l/m 0 min 0 min 143 W/m 25,7 km/h (4 Bft) 100,00 %
27.11.2019 12:50 12,8 C 12,8 C 10,6 C 82 % 990,6 hPa 0,0 l/m 0 min 0 min 100 W/m 22,5 km/h (4 Bft) 97,83 %
27.11.2019 12:52 12,8 C 12,8 C 10,6 C 82 % 990,6 hPa 0,0 l/m 0 min 0 min 86 W/m 35,4 km/h (5 Bft) 97,87 %
27.11.2019 12:54 12,8 C 12,2 C 10,6 C 81 % 990,6 hPa 0,0 l/m 0 min 0 min 81 W/m 29,0 km/h (5 Bft) 97,87 %
27.11.2019 12:56 12,8 C 12,2 C 10,6 C 81 % 990,6 hPa 0,0 l/m 0 min 0 min 65 W/m 32,2 km/h (5 Bft) 97,87 %
27.11.2019 12:58 12,8 C 12,2 C 10,6 C 81 % 990,5 hPa 0,0 l/m 0 min 0 min 71 W/m 32,2 km/h (5 Bft) 95,74 %
27.11.2019 13:00 12,8 C 12,2 C 10,6 C 81 % 990,6 hPa 0,0 l/m 0 min 0 min 66 W/m 22,5 km/h (4 Bft) 100,00 %
27.11.2019 13:02 12,7 C 12,2 C 10,6 C 81 % 990,6 hPa 0,0 l/m 0 min 0 min 85 W/m 32,2 km/h (5 Bft) 97,83 %
27.11.2019 13:04 12,7 C 12,2 C 10,6 C 81 % 990,5 hPa 0,0 l/m 0 min 0 min 115 W/m 22,5 km/h (4 Bft) 97,87 %
27.11.2019 13:06 12,7 C 12,2 C 10,6 C 80 % 990,4 hPa 0,0 l/m 0 min 0 min 106 W/m 29,0 km/h (5 Bft) 95,74 %
27.11.2019 13:08 12,7 C 12,2 C 10,6 C 80 % 990,4 hPa 0,0 l/m 0 min 0 min 114 W/m 38,6 km/h (5 Bft) 97,87 %
27.11.2019 13:10 12,7 C 12,2 C 10,6 C 80 % 990,3 hPa 0,0 l/m 0 min 0 min 93 W/m 29,0 km/h (5 Bft) 97,87 %
27.11.2019 13:12 12,7 C 12,2 C 10,6 C 80 % 990,4 hPa 0,0 l/m 0 min 0 min 77 W/m 29,0 km/h (5 Bft) 97,87 %
27.11.2019 13:14 12,6 C 12,2 C 10,6 C 80 % 990,3 hPa 0,0 l/m 0 min 0 min 74 W/m 22,5 km/h (4 Bft) 97,83 %
27.11.2019 13:16 12,6 C 12,2 C 10,6 C 80 % 990,3 hPa 0,0 l/m 0 min 0 min 83 W/m 38,6 km/h (5 Bft) 91,49 %
27.11.2019 13:18 12,6 C 13,9 C 10,6 C 80 % 990,3 hPa 0,0 l/m 2 min 0 min 168 W/m 25,7 km/h (4 Bft) 93,62 %
27.11.2019 13:20 12,7 C 15,6 C 10,6 C 80 % 990,2 hPa 0,0 l/m 2 min 0 min 404 W/m 25,7 km/h (4 Bft) 91,49 %
27.11.2019 13:22 12,7 C 16,7 C 11,1 C 81 % 990,2 hPa 0,0 l/m 2 min 0 min 407 W/m 19,3 km/h (3 Bft) 93,62 %
27.11.2019 13:24 12,8 C 15,6 C 11,1 C 81 % 990,3 hPa 0,0 l/m 2 min 0 min 348 W/m 35,4 km/h (5 Bft) 91,49 %
27.11.2019 13:26 12,9 C 14,4 C 11,1 C 80 % 990,2 hPa 0,0 l/m 2 min 0 min 262 W/m 29,0 km/h (5 Bft) 93,48 %
27.11.2019 13:28 12,9 C 13,9 C 10,6 C 80 % 990,2 hPa 0,0 l/m 0 min 0 min 127 W/m 29,0 km/h (5 Bft) 93,62 %
27.11.2019 13:30 12,9 C 12,8 C 10,6 C 79 % 990,2 hPa 0,0 l/m 0 min 0 min 98 W/m 38,6 km/h (5 Bft) 93,62 %
27.11.2019 13:32 12,9 C 13,3 C 10,6 C 79 % 990,1 hPa 0,0 l/m 0 min 0 min 90 W/m 35,4 km/h (5 Bft) 89,36 %
27.11.2019 13:34 12,9 C 13,3 C 10,6 C 79 % 990,1 hPa 0,0 l/m 0 min 0 min 129 W/m 41,8 km/h (6 Bft) 91,49 %
27.11.2019 13:36 12,9 C 12,8 C 10,6 C 78 % 990,2 hPa 0,0 l/m 0 min 0 min 124 W/m 35,4 km/h (5 Bft) 93,62 %
27.11.2019 13:38 12,9 C 12,2 C 10,6 C 78 % 990,1 hPa 0,0 l/m 0 min 0 min 99 W/m 35,4 km/h (5 Bft) 93,48 %
27.11.2019 13:40 12,9 C 12,2 C 10,6 C 78 % 990,1 hPa 0,0 l/m 0 min 0 min 86 W/m 22,5 km/h (4 Bft) 93,62 %
27.11.2019 13:42 12,8 C 12,2 C 10,6 C 78 % 990,0 hPa 0,0 l/m 0 min 0 min 93 W/m 29,0 km/h (5 Bft) 95,74 %
27.11.2019 13:44 12,8 C 12,2 C 10,6 C 78 % 990,0 hPa 0,0 l/m 0 min 0 min 100 W/m 19,3 km/h (3 Bft) 93,62 %
27.11.2019 13:46 12,8 C 12,2 C 10,6 C 78 % 990,0 hPa 0,0 l/m 0 min 0 min 114 W/m 35,4 km/h (5 Bft) 93,62 %
27.11.2019 13:48 12,8 C 12,2 C 10,6 C 78 % 990,0 hPa 0,0 l/m 0 min 0 min 74 W/m 29,0 km/h (5 Bft) 95,65 %
27.11.2019 13:50 12,8 C 12,2 C 11,1 C 78 % 990,0 hPa 0,0 l/m 0 min 0 min 69 W/m 19,3 km/h (3 Bft) 93,62 %
27.11.2019 13:52 12,8 C 12,2 C 11,7 C 79 % 989,9 hPa 0,0 l/m 0 min 0 min 69 W/m 29,0 km/h (5 Bft) 95,74 %
27.11.2019 13:54 12,7 C 12,2 C 11,7 C 79 % 989,9 hPa 0,0 l/m 0 min 0 min 61 W/m 25,7 km/h (4 Bft) 93,62 %
27.11.2019 13:56 12,7 C 12,2 C 11,7 C 79 % 990,0 hPa 0,0 l/m 0 min 0 min 51 W/m 32,2 km/h (5 Bft) 97,87 %
27.11.2019 13:58 12,7 C 12,2 C 11,1 C 79 % 990,0 hPa 0,0 l/m 0 min 0 min 45 W/m 22,5 km/h (4 Bft) 95,74 %
27.11.2019 14:00 12,7 C 12,2 C 11,1 C 79 % 989,9 hPa 0,0 l/m 0 min 0 min 37 W/m 19,3 km/h (3 Bft) 97,83 %
27.11.2019 14:02 12,7 C 12,2 C 11,1 C 79 % 989,9 hPa 0,0 l/m 0 min 0 min 44 W/m 32,2 km/h (5 Bft) 97,87 %
27.11.2019 14:04 12,6 C 12,2 C 11,1 C 79 % 990,0 hPa 0,0 l/m 0 min 0 min 49 W/m 29,0 km/h (5 Bft) 95,74 %
27.11.2019 14:06 12,6 C 12,2 C 11,1 C 79 % 989,9 hPa 0,0 l/m 0 min 0 min 50 W/m 32,2 km/h (5 Bft) 93,62 %
27.11.2019 14:08 12,6 C 12,2 C 11,1 C 80 % 990,0 hPa 0,0 l/m 0 min 0 min 61 W/m 22,5 km/h (4 Bft) 100,00 %
27.11.2019 14:10 12,6 C 12,2 C 11,1 C 80 % 989,9 hPa 0,0 l/m 0 min 0 min 49 W/m 22,5 km/h (4 Bft) 100,00 %
27.11.2019 14:12 12,6 C 12,2 C 11,1 C 80 % 990,0 hPa 0,0 l/m 0 min 0 min 57 W/m 19,3 km/h (3 Bft) 100,00 %
27.11.2019 14:14 12,6 C 12,2 C 11,1 C 80 % 989,9 hPa 0,0 l/m 0 min 0 min 71 W/m 32,2 km/h (5 Bft) 100,00 %
27.11.2019 14:16 12,6 C 12,2 C 11,1 C 80 % 989,8 hPa 0,0 l/m 0 min 0 min 66 W/m 38,6 km/h (5 Bft) 100,00 %
27.11.2019 14:18 12,6 C 12,2 C 11,1 C 79 % 989,9 hPa 0,0 l/m 0 min 0 min 61 W/m 22,5 km/h (4 Bft) 100,00 %
27.11.2019 14:20 12,6 C 12,2 C 11,1 C 79 % 989,9 hPa 0,0 l/m 0 min 0 min 52 W/m 25,7 km/h (4 Bft) 100,00 %
27.11.2019 14:22 12,6 C 12,2 C 11,1 C 79 % 990,0 hPa 0,0 l/m 0 min 0 min 54 W/m 38,6 km/h (5 Bft) 100,00 %
27.11.2019 14:24 12,6 C 12,2 C 11,1 C 79 % 989,9 hPa 0,0 l/m 0 min 0 min 45 W/m 35,4 km/h (5 Bft) 100,00 %
27.11.2019 14:26 12,6 C 11,7 C 11,1 C 79 % 989,9 hPa 0,0 l/m 0 min 0 min 41 W/m 32,2 km/h (5 Bft) 97,87 %
27.11.2019 14:28 12,6 C 11,7 C 11,1 C 79 % 989,8 hPa 0,0 l/m 0 min 0 min 52 W/m 41,8 km/h (6 Bft) 97,87 %
27.11.2019 14:30 12,5 C 11,7 C 11,1 C 79 % 989,8 hPa 0,0 l/m 0 min 0 min 53 W/m 25,7 km/h (4 Bft) 100,00 %
27.11.2019 14:32 12,5 C 11,7 C 11,1 C 79 % 989,8 hPa 0,0 l/m 0 min 0 min 57 W/m 29,0 km/h (5 Bft) 100,00 %
27.11.2019 14:34 12,5 C 12,2 C 11,1 C 79 % 989,8 hPa 0,0 l/m 0 min 0 min 68 W/m 38,6 km/h (5 Bft) 100,00 %
27.11.2019 14:36 12,5 C 12,2 C 11,1 C 79 % 989,8 hPa 0,0 l/m 0 min 0 min 59 W/m 29,0 km/h (5 Bft) 100,00 %
27.11.2019 14:38 12,5 C 11,7 C 11,1 C 79 % 989,8 hPa 0,0 l/m 0 min 0 min 43 W/m 29,0 km/h (5 Bft) 100,00 %
27.11.2019 14:40 12,5 C 11,7 C 11,1 C 79 % 989,7 hPa 0,0 l/m 0 min 0 min 32 W/m 29,0 km/h (5 Bft) 100,00 %
27.11.2019 14:42 12,4 C 11,7 C 11,1 C 79 % 989,7 hPa 0,0 l/m 0 min 0 min 24 W/m 25,7 km/h (4 Bft) 97,87 %
27.11.2019 14:44 12,4 C 11,7 C 11,1 C 79 % 989,7 hPa 0,0 l/m 0 min 0 min 20 W/m 29,0 km/h (5 Bft) 100,00 %
27.11.2019 14:46 12,4 C 11,7 C 11,1 C 79 % 989,7 hPa 0,0 l/m 0 min 0 min 23 W/m 35,4 km/h (5 Bft) 100,00 %
27.11.2019 14:48 12,4 C 11,7 C 11,1 C 79 % 989,8 hPa 0,0 l/m 0 min 0 min 26 W/m 29,0 km/h (5 Bft) 100,00 %
27.11.2019 14:50 12,4 C 11,7 C 11,1 C 80 % 989,8 hPa 0,0 l/m 0 min 0 min 28 W/m 19,3 km/h (3 Bft) 100,00 %
27.11.2019 14:52 12,4 C 11,7 C 11,1 C 80 % 989,8 hPa 0,0 l/m 0 min 0 min 30 W/m 22,5 km/h (4 Bft) 100,00 %
27.11.2019 14:54 12,4 C 11,7 C 11,1 C 80 % 989,8 hPa 0,0 l/m 0 min 0 min 35 W/m 29,0 km/h (5 Bft) 100,00 %
27.11.2019 14:56 12,4 C 11,7 C 11,1 C 80 % 989,7 hPa 0,0 l/m 0 min 0 min 37 W/m 19,3 km/h (3 Bft) 100,00 %
27.11.2019 14:58 12,3 C 11,7 C 11,1 C 81 % 989,7 hPa 0,0 l/m 0 min 0 min 33 W/m 19,3 km/h (3 Bft) 100,00 %
27.11.2019 15:00 12,3 C 11,7 C 10,6 C 81 % 989,7 hPa 0,0 l/m 0 min 0 min 28 W/m 25,7 km/h (4 Bft) 97,83 %
27.11.2019 15:02 12,3 C 11,7 C 10,6 C 81 % 989,8 hPa 0,0 l/m 0 min 0 min 32 W/m 25,7 km/h (4 Bft) 97,87 %
27.11.2019 15:04 12,3 C 11,7 C 10,6 C 81 % 989,7 hPa 0,0 l/m 0 min 0 min 35 W/m 22,5 km/h (4 Bft) 100,00 %
27.11.2019 15:06 12,3 C 11,7 C 10,6 C 81 % 989,7 hPa 0,0 l/m 0 min 0 min 36 W/m 22,5 km/h (4 Bft) 100,00 %
27.11.2019 15:08 12,3 C 11,7 C 10,6 C 81 % 989,7 hPa 0,0 l/m 0 min 0 min 31 W/m 22,5 km/h (4 Bft) 100,00 %
27.11.2019 15:10 12,2 C 11,7 C 10,6 C 81 % 989,7 hPa 0,0 l/m 0 min 0 min 28 W/m 25,7 km/h (4 Bft) 100,00 %
27.11.2019 15:12 12,2 C 11,7 C 10,6 C 82 % 989,7 hPa 0,0 l/m 0 min 0 min 31 W/m 22,5 km/h (4 Bft) 97,83 %
27.11.2019 15:14 12,2 C 11,7 C 10,6 C 82 % 989,6 hPa 0,0 l/m 0 min 0 min 32 W/m 35,4 km/h (5 Bft) 100,00 %
27.11.2019 15:16 12,2 C 11,7 C 10,6 C 82 % 989,6 hPa 0,0 l/m 0 min 0 min 26 W/m 16,1 km/h (3 Bft) 100,00 %
27.11.2019 15:18 12,1 C 11,7 C 10,6 C 82 % 989,6 hPa 0,0 l/m 0 min 0 min 21 W/m 19,3 km/h (3 Bft) 100,00 %
27.11.2019 15:20 12,1 C 11,7 C 10,6 C 82 % 989,6 hPa 0,0 l/m 0 min 0 min 20 W/m 45,1 km/h (6 Bft) 100,00 %
27.11.2019 15:22 12,1 C 11,7 C 10,6 C 82 % 989,6 hPa 0,0 l/m 0 min 0 min 23 W/m 25,7 km/h (4 Bft) 65,96 %
27.11.2019 15:24 12,1 C 11,7 C 10,6 C 82 % 989,6 hPa 0,0 l/m 0 min 0 min 22 W/m 19,3 km/h (3 Bft) 87,10 %
27.11.2019 15:26 12,1 C 11,7 C 10,6 C 82 % 989,6 hPa 0,0 l/m 0 min 0 min 22 W/m 19,3 km/h (3 Bft) 100,00 %
27.11.2019 15:28 12,1 C 11,1 C 10,6 C 82 % 989,6 hPa 0,0 l/m 0 min 0 min 19 W/m 16,1 km/h (3 Bft) 97,87 %
27.11.2019 15:30 12,1 C 11,1 C 10,6 C 82 % 989,7 hPa 0,0 l/m 0 min 0 min 16 W/m 25,7 km/h (4 Bft) 100,00 %
27.11.2019 15:32 12,1 C 11,1 C 10,6 C 82 % 989,6 hPa 0,0 l/m 0 min 0 min 16 W/m 29,0 km/h (5 Bft) 100,00 %
27.11.2019 15:34 12,1 C 11,1 C 10,6 C 82 % 989,6 hPa 0,0 l/m 0 min 0 min 18 W/m 19,3 km/h (3 Bft) 100,00 %
27.11.2019 15:36 12,1 C 11,1 C 10,6 C 82 % 989,6 hPa 0,0 l/m 0 min 0 min 18 W/m 29,0 km/h (5 Bft) 100,00 %
27.11.2019 15:38 12,0 C 11,1 C 10,6 C 82 % 989,6 hPa 0,0 l/m 0 min 0 min 16 W/m 19,3 km/h (3 Bft) 100,00 %
27.11.2019 15:40 12,0 C 11,1 C 10,6 C 82 % 989,5 hPa 0,0 l/m 0 min 0 min 16 W/m 16,1 km/h (3 Bft) 100,00 %
27.11.2019 15:42 12,0 C 11,1 C 10,6 C 82 % 989,5 hPa 0,0 l/m 0 min 0 min 17 W/m 19,3 km/h (3 Bft) 97,87 %
27.11.2019 15:44 12,0 C 11,1 C 10,6 C 82 % 989,5 hPa 0,0 l/m 0 min 0 min 18 W/m 22,5 km/h (4 Bft) 100,00 %
27.11.2019 15:46 12,0 C 11,1 C 10,6 C 82 % 989,5 hPa 0,0 l/m 0 min 0 min 16 W/m 25,7 km/h (4 Bft) 100,00 %
27.11.2019 15:48 12,0 C 11,1 C 10,6 C 82 % 989,5 hPa 0,0 l/m 0 min 0 min 16 W/m 22,5 km/h (4 Bft) 97,87 %
27.11.2019 15:50 12,0 C 11,1 C 10,6 C 82 % 989,5 hPa 0,0 l/m 0 min 0 min 14 W/m 29,0 km/h (5 Bft) 97,87 %
27.11.2019 15:52 12,0 C 11,1 C 10,6 C 82 % 989,5 hPa 0,0 l/m 0 min 0 min 12 W/m 22,5 km/h (4 Bft) 93,62 %
27.11.2019 15:54 12,0 C 11,1 C 10,6 C 82 % 989,5 hPa 0,0 l/m 0 min 0 min 11 W/m 19,3 km/h (3 Bft) 97,87 %
27.11.2019 15:56 12,0 C 11,1 C 10,6 C 82 % 989,4 hPa 0,0 l/m 0 min 0 min 12 W/m 19,3 km/h (3 Bft) 95,74 %
27.11.2019 15:58 12,0 C 11,1 C 10,6 C 82 % 989,4 hPa 0,0 l/m 0 min 0 min 12 W/m 29,0 km/h (5 Bft) 95,65 %
27.11.2019 16:00 11,9 C 11,1 C 10,6 C 82 % 989,5 hPa 0,0 l/m 0 min 0 min 11 W/m 25,7 km/h (4 Bft) 97,87 %
27.11.2019 16:02 11,9 C 11,1 C 10,6 C 83 % 989,5 hPa 0,0 l/m 0 min 0 min 8 W/m 19,3 km/h (3 Bft) 91,49 %
27.11.2019 16:04 11,9 C 10,6 C 10,0 C 83 % 989,5 hPa 0,0 l/m 0 min 0 min 8 W/m 29,0 km/h (5 Bft) 93,62 %
27.11.2019 16:06 11,9 C 10,6 C 10,0 C 83 % 989,5 hPa 0,0 l/m 0 min 0 min 9 W/m 29,0 km/h (5 Bft) 95,74 %
27.11.2019 16:08 11,9 C 10,0 C 10,0 C 83 % 989,5 hPa 0,0 l/m 0 min 2 min 6 W/m 29,0 km/h (5 Bft) 93,62 %
27.11.2019 16:10 11,9 C 10,0 C 9,4 C 84 % 989,4 hPa 0,0 l/m 0 min 2 min 5 W/m 38,6 km/h (5 Bft) 93,48 %
27.11.2019 16:12 11,9 C 9,4 C 8,9 C 84 % 989,5 hPa 0,0 l/m 0 min 2 min 0 W/m 22,5 km/h (4 Bft) 93,62 %
27.11.2019 16:14 11,8 C 9,4 C 8,9 C 85 % 989,4 hPa 0,2 l/m 0 min 2 min 0 W/m 19,3 km/h (3 Bft) 93,62 %
27.11.2019 16:16 11,8 C 8,9 C 8,9 C 85 % 989,5 hPa 0,0 l/m 0 min 2 min 0 W/m 19,3 km/h (3 Bft) 93,62 %
27.11.2019 16:18 11,8 C 8,9 C 8,3 C 86 % 989,5 hPa 0,0 l/m 0 min 2 min 0 W/m 19,3 km/h (3 Bft) 93,62 %
27.11.2019 16:20 11,7 C 8,9 C 8,3 C 86 % 989,5 hPa 0,0 l/m 0 min 2 min 0 W/m 16,1 km/h (3 Bft) 93,48 %
27.11.2019 16:22 11,7 C 8,9 C 8,3 C 86 % 989,5 hPa 0,0 l/m 0 min 2 min 0 W/m 22,5 km/h (4 Bft) 89,36 %
27.11.2019 16:24 11,7 C 8,3 C 8,3 C 87 % 989,4 hPa 0,0 l/m 0 min 2 min 0 W/m 22,5 km/h (4 Bft) 95,65 %
27.11.2019 16:26 11,6 C 8,3 C 8,3 C 87 % 989,4 hPa 0,0 l/m 0 min 2 min 0 W/m 19,3 km/h (3 Bft) 89,36 %
27.11.2019 16:28 11,6 C 8,3 C 8,3 C 87 % 989,4 hPa 0,0 l/m 0 min 2 min 0 W/m 12,9 km/h (3 Bft) 93,62 %
27.11.2019 16:30 11,5 C 8,3 C 8,3 C 88 % 989,4 hPa 0,0 l/m 0 min 2 min 0 W/m 16,1 km/h (3 Bft) 93,62 %
27.11.2019 16:32 11,4 C 8,9 C 8,3 C 88 % 989,3 hPa 0,0 l/m 0 min 2 min 0 W/m 16,1 km/h (3 Bft) 93,48 %
27.11.2019 16:34 11,4 C 8,3 C 8,3 C 88 % 989,4 hPa 0,2 l/m 0 min 2 min 0 W/m 12,9 km/h (3 Bft) 93,62 %
27.11.2019 16:36 11,3 C 8,3 C 8,3 C 88 % 989,4 hPa 0,0 l/m 0 min 2 min 0 W/m 16,1 km/h (3 Bft) 93,62 %
27.11.2019 16:38 11,3 C 8,3 C 8,3 C 89 % 989,3 hPa 0,0 l/m 0 min 2 min 0 W/m 19,3 km/h (3 Bft) 95,74 %
27.11.2019 16:40 11,2 C 8,3 C 8,3 C 89 % 989,4 hPa 0,0 l/m 0 min 2 min 0 W/m 16,1 km/h (3 Bft) 95,74 %
27.11.2019 16:42 11,2 C 8,9 C 8,3 C 89 % 989,4 hPa 0,0 l/m 0 min 2 min 0 W/m 19,3 km/h (3 Bft) 95,74 %
27.11.2019 16:44 11,1 C 8,9 C 8,3 C 89 % 989,3 hPa 0,0 l/m 0 min 2 min 0 W/m 16,1 km/h (3 Bft) 93,48 %
27.11.2019 16:46 11,1 C 8,3 C 8,3 C 90 % 989,4 hPa 0,2 l/m 0 min 2 min 0 W/m 19,3 km/h (3 Bft) 95,74 %
27.11.2019 16:48 11,1 C 8,3 C 8,3 C 90 % 989,3 hPa 0,0 l/m 0 min 2 min 0 W/m 12,9 km/h (3 Bft) 95,74 %
27.11.2019 16:50 10,9 C 8,3 C 8,3 C 90 % 989,3 hPa 0,0 l/m 0 min 2 min 0 W/m 38,6 km/h (5 Bft) 91,49 %
27.11.2019 16:52 10,9 C 8,3 C 8,3 C 90 % 989,3 hPa 0,0 l/m 0 min 2 min 0 W/m 16,1 km/h (3 Bft) 93,62 %
27.11.2019 16:54 10,9 C 8,3 C 8,3 C 90 % 989,3 hPa 0,0 l/m 0 min 2 min 0 W/m 19,3 km/h (3 Bft) 97,87 %
27.11.2019 16:56 10,8 C 8,3 C 8,3 C 91 % 989,3 hPa 0,0 l/m 0 min 2 min 0 W/m 22,5 km/h (4 Bft) 97,83 %
27.11.2019 16:58 10,8 C 8,3 C 7,8 C 91 % 989,2 hPa 0,0 l/m 0 min 2 min 0 W/m 25,7 km/h (4 Bft) 95,74 %
27.11.2019 17:00 10,7 C 8,3 C 7,8 C 91 % 989,2 hPa 0,0 l/m 0 min 2 min 0 W/m 25,7 km/h (4 Bft) 97,87 %
27.11.2019 17:02 10,7 C 8,3 C 7,8 C 91 % 989,2 hPa 0,0 l/m 0 min 2 min 0 W/m 22,5 km/h (4 Bft) 91,49 %
27.11.2019 17:04 10,7 C 8,3 C 7,8 C 91 % 989,2 hPa 0,0 l/m 0 min 2 min 0 W/m 19,3 km/h (3 Bft) 100,00 %
27.11.2019 17:06 10,6 C 8,3 C 7,8 C 91 % 989,2 hPa 0,0 l/m 0 min 2 min 0 W/m 12,9 km/h (3 Bft) 100,00 %
27.11.2019 17:08 10,6 C 8,3 C 7,8 C 92 % 989,2 hPa 0,0 l/m 0 min 2 min 0 W/m 16,1 km/h (3 Bft) 97,87 %
27.11.2019 17:10 10,6 C 8,3 C 7,8 C 92 % 989,1 hPa 0,0 l/m 0 min 2 min 0 W/m 29,0 km/h (5 Bft) 100,00 %
27.11.2019 17:12 10,5 C 8,3 C 7,8 C 92 % 989,1 hPa 0,2 l/m 0 min 2 min 0 W/m 25,7 km/h (4 Bft) 95,74 %
27.11.2019 17:14 10,5 C 8,3 C 7,8 C 92 % 989,1 hPa 0,0 l/m 0 min 2 min 0 W/m 16,1 km/h (3 Bft) 97,87 %
27.11.2019 17:16 10,4 C 8,3 C 7,8 C 92 % 989,1 hPa 0,0 l/m 0 min 2 min 0 W/m 16,1 km/h (3 Bft) 97,87 %
27.11.2019 17:18 10,4 C 8,3 C 7,8 C 92 % 989,1 hPa 0,0 l/m 0 min 2 min 0 W/m 19,3 km/h (3 Bft) 97,83 %
27.11.2019 17:20 10,4 C 8,3 C 7,8 C 92 % 989,1 hPa 0,0 l/m 0 min 2 min 0 W/m 22,5 km/h (4 Bft) 100,00 %
27.11.2019 17:22 10,4 C 8,3 C 7,8 C 92 % 989,1 hPa 0,0 l/m 0 min 2 min 0 W/m 12,9 km/h (3 Bft) 100,00 %
27.11.2019 17:24 10,4 C 8,3 C 7,8 C 92 % 989,1 hPa 0,0 l/m 0 min 2 min 0 W/m 22,5 km/h (4 Bft) 97,87 %
27.11.2019 17:26 10,3 C 8,3 C 7,8 C 93 % 989,1 hPa 0,0 l/m 0 min 2 min 0 W/m 16,1 km/h (3 Bft) 100,00 %
27.11.2019 17:28 10,3 C 8,3 C 7,8 C 93 % 989,1 hPa 0,0 l/m 0 min 2 min 0 W/m 16,1 km/h (3 Bft) 100,00 %
27.11.2019 17:30 10,3 C 8,3 C 7,8 C 93 % 989,1 hPa 0,0 l/m 0 min 2 min 0 W/m 12,9 km/h (3 Bft) 100,00 %
27.11.2019 17:32 10,3 C 8,3 C 7,8 C 93 % 989,1 hPa 0,0 l/m 0 min 2 min 0 W/m 22,5 km/h (4 Bft) 100,00 %
27.11.2019 17:34 10,3 C 8,3 C 7,8 C 93 % 989,0 hPa 0,0 l/m 0 min 2 min 0 W/m 19,3 km/h (3 Bft) 100,00 %
27.11.2019 17:36 10,3 C 8,3 C 7,8 C 93 % 989,0 hPa 0,0 l/m 0 min 2 min 0 W/m 12,9 km/h (3 Bft) 97,87 %
27.11.2019 17:38 10,3 C 8,3 C 7,8 C 93 % 989,0 hPa 0,0 l/m 0 min 2 min 0 W/m 22,5 km/h (4 Bft) 100,00 %
27.11.2019 17:40 10,3 C 8,3 C 7,8 C 93 % 989,0 hPa 0,0 l/m 0 min 2 min 0 W/m 16,1 km/h (3 Bft) 100,00 %
27.11.2019 17:42 10,2 C 8,3 C 7,8 C 93 % 989,0 hPa 0,0 l/m 0 min 0 min 0 W/m 19,3 km/h (3 Bft) 97,83 %
27.11.2019 17:44 10,2 C 8,3 C 7,8 C 93 % 989,0 hPa 0,0 l/m 0 min 2 min 0 W/m 22,5 km/h (4 Bft) 100,00 %
27.11.2019 17:46 10,2 C 8,3 C 7,8 C 93 % 989,0 hPa 0,0 l/m 0 min 0 min 0 W/m 25,7 km/h (4 Bft) 100,00 %
27.11.2019 17:48 10,2 C 8,3 C 7,8 C 94 % 988,9 hPa 0,0 l/m 0 min 0 min 0 W/m 22,5 km/h (4 Bft) 100,00 %
27.11.2019 17:50 10,2 C 8,3 C 7,8 C 94 % 989,0 hPa 0,0 l/m 0 min 0 min 0 W/m 19,3 km/h (3 Bft) 100,00 %
27.11.2019 17:52 10,2 C 8,3 C 7,8 C 94 % 988,9 hPa 0,0 l/m 0 min 0 min 0 W/m 19,3 km/h (3 Bft) 100,00 %
27.11.2019 17:54 10,2 C 8,3 C 7,8 C 94 % 988,9 hPa 0,0 l/m 0 min 0 min 0 W/m 16,1 km/h (3 Bft) 100,00 %
27.11.2019 17:56 10,2 C 8,3 C 7,8 C 94 % 988,9 hPa 0,0 l/m 0 min 0 min 0 W/m 19,3 km/h (3 Bft) 100,00 %
27.11.2019 17:58 10,2 C 8,3 C 8,3 C 94 % 988,9 hPa 0,0 l/m 0 min 0 min 0 W/m 12,9 km/h (3 Bft) 100,00 %
27.11.2019 18:00 10,2 C 8,3 C 8,3 C 94 % 988,9 hPa 0,0 l/m 0 min 0 min 0 W/m 16,1 km/h (3 Bft) 100,00 %
27.11.2019 18:02 10,2 C 8,3 C 8,3 C 94 % 988,8 hPa 0,0 l/m 0 min 0 min 0 W/m 19,3 km/h (3 Bft) 97,87 %
27.11.2019 18:04 10,2 C 8,3 C 8,3 C 94 % 988,9 hPa 0,0 l/m 0 min 0 min 0 W/m 12,9 km/h (3 Bft) 100,00 %
27.11.2019 18:06 10,2 C 8,3 C 8,3 C 94 % 988,8 hPa 0,0 l/m 0 min 0 min 0 W/m 16,1 km/h (3 Bft) 100,00 %
27.11.2019 18:08 10,1 C 8,9 C 8,3 C 94 % 988,8 hPa 0,0 l/m 0 min 0 min 0 W/m 22,5 km/h (4 Bft) 100,00 %
27.11.2019 18:10 10,1 C 8,9 C 8,3 C 94 % 988,9 hPa 0,0 l/m 0 min 0 min 0 W/m 19,3 km/h (3 Bft) 100,00 %
27.11.2019 18:12 10,1 C 8,9 C 8,3 C 94 % 988,9 hPa 0,0 l/m 0 min 0 min 0 W/m 25,7 km/h (4 Bft) 100,00 %
27.11.2019 18:14 10,1 C 8,9 C 8,3 C 94 % 988,8 hPa 0,0 l/m 0 min 0 min 0 W/m 16,1 km/h (3 Bft) 100,00 %
27.11.2019 18:16 10,2 C 8,9 C 8,3 C 94 % 988,8 hPa 0,0 l/m 0 min 0 min 0 W/m 16,1 km/h (3 Bft) 100,00 %
27.11.2019 18:18 10,1 C 8,9 C 8,3 C 94 % 988,8 hPa 0,0 l/m 0 min 0 min 0 W/m 22,5 km/h (4 Bft) 100,00 %
27.11.2019 18:20 10,2 C 8,9 C 8,3 C 94 % 988,7 hPa 0,0 l/m 0 min 0 min 0 W/m 22,5 km/h (4 Bft) 100,00 %
27.11.2019 18:22 10,2 C 8,9 C 8,3 C 94 % 988,6 hPa 0,0 l/m 0 min 0 min 0 W/m 19,3 km/h (3 Bft) 100,00 %
27.11.2019 18:24 10,2 C 8,9 C 8,3 C 94 % 988,7 hPa 0,0 l/m 0 min 0 min 0 W/m 22,5 km/h (4 Bft) 100,00 %
27.11.2019 18:26 10,2 C 8,9 C 8,3 C 94 % 988,7 hPa 0,0 l/m 0 min 0 min 0 W/m 19,3 km/h (3 Bft) 100,00 %
27.11.2019 18:28 10,2 C 8,9 C 8,3 C 94 % 988,7 hPa 0,0 l/m 0 min 0 min 0 W/m 19,3 km/h (3 Bft) 97,83 %
27.11.2019 18:30 10,2 C 8,9 C 8,3 C 94 % 988,7 hPa 0,0 l/m 0 min 0 min 0 W/m 16,1 km/h (3 Bft) 97,87 %
27.11.2019 18:32 10,2 C 8,9 C 8,3 C 94 % 988,8 hPa 0,0 l/m 0 min 0 min 0 W/m 22,5 km/h (4 Bft) 97,62 %
27.11.2019 18:34 10,2 C 8,9 C 8,3 C 94 % 988,7 hPa 0,0 l/m 0 min 0 min 0 W/m 16,1 km/h (3 Bft) 97,92 %
27.11.2019 18:36 10,2 C 8,9 C 8,3 C 94 % 988,8 hPa 0,0 l/m 0 min 0 min 0 W/m 16,1 km/h (3 Bft) 97,87 %
27.11.2019 18:38 10,2 C 8,9 C 8,3 C 94 % 988,7 hPa 0,0 l/m 0 min 0 min 0 W/m 19,3 km/h (3 Bft) 95,74 %
27.11.2019 18:40 10,2 C 8,9 C 8,3 C 94 % 988,8 hPa 0,0 l/m 0 min 0 min 0 W/m 16,1 km/h (3 Bft) 95,83 %
27.11.2019 18:42 10,2 C 8,9 C 8,3 C 94 % 988,7 hPa 0,0 l/m 0 min 0 min 0 W/m 19,3 km/h (3 Bft) 95,83 %
27.11.2019 18:44 10,2 C 8,9 C 8,3 C 94 % 988,7 hPa 0,0 l/m 0 min 0 min 0 W/m 22,5 km/h (4 Bft) 95,83 %
27.11.2019 18:46 10,2 C 8,9 C 8,3 C 94 % 988,7 hPa 0,0 l/m 0 min 0 min 0 W/m 29,0 km/h (5 Bft) 93,48 %
27.11.2019 18:48 10,2 C 8,9 C 8,3 C 94 % 988,7 hPa 0,0 l/m 0 min 0 min 0 W/m 22,5 km/h (4 Bft) 95,83 %
27.11.2019 18:50 10,2 C 8,9 C 8,3 C 94 % 988,8 hPa 0,0 l/m 0 min 0 min 0 W/m 19,3 km/h (3 Bft) 95,74 %
27.11.2019 18:52 10,2 C 8,9 C 8,3 C 93 % 988,8 hPa 0,0 l/m 0 min 0 min 0 W/m 16,1 km/h (3 Bft) 95,65 %
27.11.2019 18:54 10,3 C 8,9 C 8,3 C 93 % 988,8 hPa 0,0 l/m 0 min 0 min 0 W/m 16,1 km/h (3 Bft) 95,74 %
27.11.2019 18:56 10,3 C 8,9 C 8,3 C 93 % 988,7 hPa 0,0 l/m 0 min 0 min 0 W/m 16,1 km/h (3 Bft) 95,74 %
27.11.2019 18:58 10,3 C 8,9 C 8,3 C 93 % 988,6 hPa 0,0 l/m 0 min 0 min 0 W/m 22,5 km/h (4 Bft) 95,74 %
27.11.2019 19:00 10,3 C 8,9 C 8,3 C 93 % 988,6 hPa 0,0 l/m 0 min 0 min 0 W/m 25,7 km/h (4 Bft) 95,12 %
27.11.2019 19:02 10,3 C 8,9 C 8,3 C 93 % 988,7 hPa 0,0 l/m 0 min 0 min 0 W/m 22,5 km/h (4 Bft) 96,00 %
27.11.2019 19:04 10,3 C 8,9 C 8,3 C 93 % 988,6 hPa 0,0 l/m 0 min 0 min 0 W/m 19,3 km/h (3 Bft) 93,88 %
27.11.2019 19:06 10,3 C 8,9 C 8,3 C 93 % 988,6 hPa 0,0 l/m 0 min 0 min 0 W/m 22,5 km/h (4 Bft) 95,74 %
27.11.2019 19:08 10,3 C 8,9 C 8,3 C 93 % 988,5 hPa 0,0 l/m 0 min 0 min 0 W/m 22,5 km/h (4 Bft) 89,36 %
27.11.2019 19:10 10,2 C 8,9 C 8,3 C 93 % 988,5 hPa 0,0 l/m 0 min 0 min 0 W/m 19,3 km/h (3 Bft) 95,74 %
27.11.2019 19:12 10,2 C 9,4 C 8,3 C 93 % 988,5 hPa 0,0 l/m 0 min 0 min 0 W/m 19,3 km/h (3 Bft) 95,74 %
27.11.2019 19:14 10,3 C 9,4 C 8,3 C 93 % 988,5 hPa 0,0 l/m 0 min 0 min 0 W/m 25,7 km/h (4 Bft) 95,74 %
27.11.2019 19:16 10,3 C 9,4 C 8,3 C 93 % 988,4 hPa 0,0 l/m 0 min 0 min 0 W/m 25,7 km/h (4 Bft) 93,48 %
27.11.2019 19:18 10,3 C 9,4 C 8,3 C 93 % 988,4 hPa 0,0 l/m 0 min 0 min 0 W/m 22,5 km/h (4 Bft) 95,74 %
27.11.2019 19:20 10,3 C 9,4 C 8,3 C 93 % 988,4 hPa 0,0 l/m 0 min 0 min 0 W/m 19,3 km/h (3 Bft) 95,24 %
27.11.2019 19:22 10,3 C 9,4 C 8,3 C 93 % 988,4 hPa 0,0 l/m 0 min 0 min 0 W/m 29,0 km/h (5 Bft) 91,49 %
27.11.2019 19:24 10,3 C 9,4 C 8,3 C 93 % 988,4 hPa 0,0 l/m 0 min 0 min 0 W/m 19,3 km/h (3 Bft) 97,92 %
27.11.2019 19:26 10,3 C 10,0 C 8,3 C 93 % 988,5 hPa 0,0 l/m 0 min 0 min 0 W/m 25,7 km/h (4 Bft) 97,92 %
27.11.2019 19:28 10,3 C 10,0 C 8,3 C 93 % 988,5 hPa 0,0 l/m 0 min 0 min 0 W/m 19,3 km/h (3 Bft) 95,83 %
27.11.2019 19:30 10,3 C 10,0 C 8,3 C 93 % 988,5 hPa 0,0 l/m 0 min 0 min 0 W/m 22,5 km/h (4 Bft) 100,00 %
27.11.2019 19:32 10,3 C 10,0 C 8,3 C 93 % 988,5 hPa 0,0 l/m 0 min 0 min 0 W/m 29,0 km/h (5 Bft) 97,92 %
27.11.2019 19:34 10,4 C 10,0 C 8,3 C 93 % 988,5 hPa 0,0 l/m 0 min 0 min 0 W/m 22,5 km/h (4 Bft) 100,00 %
27.11.2019 19:36 10,4 C 10,0 C 8,3 C 93 % 988,5 hPa 0,0 l/m 0 min 0 min 0 W/m 19,3 km/h (3 Bft) 95,74 %
27.11.2019 19:38 10,4 C 10,0 C 8,3 C 93 % 988,5 hPa 0,0 l/m 0 min 0 min 0 W/m 22,5 km/h (4 Bft) 97,83 %
27.11.2019 19:40 10,4 C 10,0 C 8,3 C 93 % 988,4 hPa 0,0 l/m 0 min 0 min 0 W/m 25,7 km/h (4 Bft) 100,00 %
27.11.2019 19:42 10,4 C 10,0 C 8,9 C 92 % 988,5 hPa 0,0 l/m 0 min 0 min 0 W/m 22,5 km/h (4 Bft) 97,87 %
27.11.2019 19:44 10,4 C 10,0 C 8,9 C 92 % 988,5 hPa 0,0 l/m 0 min 0 min 0 W/m 22,5 km/h (4 Bft) 95,74 %
27.11.2019 19:46 10,5 C 10,0 C 8,9 C 92 % 988,4 hPa 0,0 l/m 0 min 0 min 0 W/m 29,0 km/h (5 Bft) 97,87 %
27.11.2019 19:48 10,5 C 10,0 C 8,9 C 92 % 988,4 hPa 0,0 l/m 0 min 0 min 0 W/m 22,5 km/h (4 Bft) 97,87 %
27.11.2019 19:50 10,5 C 10,0 C 8,9 C 92 % 988,4 hPa 0,0 l/m 0 min 0 min 0 W/m 32,2 km/h (5 Bft) 97,56 %
27.11.2019 19:52 10,6 C 10,0 C 8,9 C 92 % 988,5 hPa 0,0 l/m 0 min 0 min 0 W/m 19,3 km/h (3 Bft) 100,00 %
27.11.2019 19:53 10,6 C 10,0 C 8,9 C 92 % 988,5 hPa 0,0 l/m 0 min 0 min 0 W/m 25,7 km/h (4 Bft) 95,83 %
27.11.2019 19:56 10,6 C 10,0 C 8,9 C 92 % 988,4 hPa 0,0 l/m 0 min 0 min 0 W/m 25,7 km/h (4 Bft) 95,74 %
27.11.2019 19:58 10,6 C 10,0 C 8,9 C 92 % 988,5 hPa 0,0 l/m 0 min 0 min 0 W/m 16,1 km/h (3 Bft) 95,65 %
27.11.2019 20:00 10,7 C 10,0 C 8,9 C 92 % 988,4 hPa 0,0 l/m 0 min 0 min 0 W/m 32,2 km/h (5 Bft) 97,87 %
27.11.2019 20:02 10,7 C 10,0 C 8,9 C 92 % 988,4 hPa 0,0 l/m 0 min 0 min 0 W/m 19,3 km/h (3 Bft) 97,87 %
27.11.2019 20:04 10,7 C 10,0 C 8,9 C 92 % 988,4 hPa 0,0 l/m 0 min 0 min 0 W/m 19,3 km/h (3 Bft) 93,62 %
27.11.2019 20:06 10,7 C 10,0 C 8,9 C 92 % 988,4 hPa 0,0 l/m 0 min 0 min 0 W/m 25,7 km/h (4 Bft) 97,87 %
27.11.2019 20:08 10,7 C 10,0 C 8,9 C 92 % 988,2 hPa 0,0 l/m 0 min 0 min 0 W/m 19,3 km/h (3 Bft) 97,87 %
27.11.2019 20:10 10,8 C 10,0 C 8,9 C 92 % 988,3 hPa 0,0 l/m 0 min 0 min 0 W/m 19,3 km/h (3 Bft) 97,83 %
27.11.2019 20:12 10,8 C 10,6 C 8,9 C 92 % 988,3 hPa 0,0 l/m 0 min 0 min 0 W/m 25,7 km/h (4 Bft) 97,87 %
27.11.2019 20:14 10,8 C 10,6 C 8,9 C 92 % 988,3 hPa 0,0 l/m 0 min 0 min 0 W/m 22,5 km/h (4 Bft) 97,87 %
27.11.2019 20:16 10,8 C 10,6 C 8,9 C 91 % 988,4 hPa 0,0 l/m 0 min 0 min 0 W/m 25,7 km/h (4 Bft) 97,87 %
27.11.2019 20:18 10,8 C 10,6 C 8,9 C 92 % 988,3 hPa 0,0 l/m 0 min 0 min 0 W/m 19,3 km/h (3 Bft) 97,87 %
27.11.2019 20:20 10,8 C 10,6 C 8,9 C 92 % 988,4 hPa 0,0 l/m 0 min 0 min 0 W/m 29,0 km/h (5 Bft) 97,87 %
27.11.2019 20:22 10,9 C 10,6 C 8,9 C 91 % 988,3 hPa 0,0 l/m 0 min 0 min 0 W/m 29,0 km/h (5 Bft) 97,83 %
27.11.2019 20:24 10,9 C 10,6 C 8,9 C 91 % 988,2 hPa 0,0 l/m 0 min 0 min 0 W/m 19,3 km/h (3 Bft) 95,74 %
27.11.2019 20:26 10,9 C 10,6 C 8,9 C 91 % 988,3 hPa 0,0 l/m 0 min 0 min 0 W/m 25,7 km/h (4 Bft) 97,87 %
27.11.2019 20:28 10,9 C 10,0 C 8,9 C 91 % 988,2 hPa 0,0 l/m 0 min 0 min 0 W/m 32,2 km/h (5 Bft) 97,87 %
27.11.2019 20:30 10,9 C 9,4 C 8,9 C 91 % 988,3 hPa 0,0 l/m 0 min 2 min 0 W/m 19,3 km/h (3 Bft) 97,87 %
27.11.2019 20:32 11,0 C 9,4 C 8,9 C 91 % 988,2 hPa 0,2 l/m 0 min 2 min 0 W/m 25,7 km/h (4 Bft) 97,83 %
27.11.2019 20:34 11,0 C 8,9 C 8,3 C 91 % 988,2 hPa 0,0 l/m 0 min 2 min 0 W/m 25,7 km/h (4 Bft) 97,87 %
27.11.2019 20:36 11,1 C 8,9 C 8,3 C 91 % 988,4 hPa 0,0 l/m 0 min 2 min 0 W/m 19,3 km/h (3 Bft) 97,87 %
27.11.2019 20:38 11,1 C 8,9 C 8,3 C 91 % 988,4 hPa 0,2 l/m 0 min 2 min 0 W/m 32,2 km/h (5 Bft) 97,87 %
27.11.2019 20:40 11,1 C 8,9 C 8,3 C 91 % 988,2 hPa 0,2 l/m 0 min 2 min 0 W/m 35,4 km/h (5 Bft) 100,00 %
27.11.2019 20:42 11,1 C 8,9 C 8,3 C 91 % 988,3 hPa 0,0 l/m 0 min 2 min 0 W/m 35,4 km/h (5 Bft) 100,00 %
27.11.2019 20:44 11,0 C 8,9 C 8,3 C 92 % 988,3 hPa 0,0 l/m 0 min 2 min 0 W/m 22,5 km/h (4 Bft) 100,00 %
27.11.2019 20:46 11,0 C 8,9 C 8,3 C 92 % 988,3 hPa 0,0 l/m 0 min 0 min 0 W/m 32,2 km/h (5 Bft) 100,00 %
27.11.2019 20:48 11,0 C 9,4 C 8,3 C 92 % 988,3 hPa 0,0 l/m 0 min 0 min 0 W/m 25,7 km/h (4 Bft) 100,00 %
27.11.2019 20:50 10,9 C 9,4 C 8,9 C 92 % 988,3 hPa 0,0 l/m 0 min 0 min 0 W/m 35,4 km/h (5 Bft) 100,00 %
27.11.2019 20:52 10,9 C 9,4 C 8,9 C 92 % 988,4 hPa 0,0 l/m 0 min 0 min 0 W/m 25,7 km/h (4 Bft) 97,87 %
27.11.2019 20:54 10,9 C 9,4 C 8,9 C 92 % 988,3 hPa 0,0 l/m 0 min 0 min 0 W/m 22,5 km/h (4 Bft) 100,00 %
27.11.2019 20:56 10,9 C 9,4 C 8,9 C 92 % 988,2 hPa 0,0 l/m 0 min 0 min 0 W/m 25,7 km/h (4 Bft) 100,00 %
27.11.2019 20:58 10,8 C 9,4 C 8,9 C 92 % 988,3 hPa 0,0 l/m 0 min 0 min 0 W/m 35,4 km/h (5 Bft) 97,87 %
27.11.2019 21:00 10,8 C 9,4 C 8,3 C 92 % 988,3 hPa 0,0 l/m 0 min 0 min 0 W/m 35,4 km/h (5 Bft) 100,00 %
27.11.2019 21:02 10,8 C 9,4 C 8,3 C 92 % 988,3 hPa 0,0 l/m 0 min 0 min 0 W/m 32,2 km/h (5 Bft) 97,87 %
27.11.2019 21:04 10,8 C 9,4 C 8,3 C 92 % 988,4 hPa 0,0 l/m 0 min 0 min 0 W/m 32,2 km/h (5 Bft) 100,00 %
27.11.2019 21:06 10,8 C 9,4 C 8,3 C 92 % 988,3 hPa 0,0 l/m 0 min 0 min 0 W/m 29,0 km/h (5 Bft) 97,87 %
27.11.2019 21:08 10,8 C 9,4 C 8,3 C 92 % 988,2 hPa 0,0 l/m 0 min 0 min 0 W/m 29,0 km/h (5 Bft) 95,65 %
27.11.2019 21:10 10,8 C 9,4 C 8,3 C 92 % 988,2 hPa 0,0 l/m 0 min 0 min 0 W/m 32,2 km/h (5 Bft) 100,00 %
27.11.2019 21:12 10,8 C 9,4 C 8,9 C 92 % 988,1 hPa 0,0 l/m 0 min 0 min 0 W/m 29,0 km/h (5 Bft) 100,00 %
27.11.2019 21:14 10,8 C 9,4 C 8,3 C 92 % 988,2 hPa 0,0 l/m 0 min 0 min 0 W/m 29,0 km/h (5 Bft) 97,87 %
27.11.2019 21:16 10,7 C 9,4 C 8,3 C 92 % 988,2 hPa 0,0 l/m 0 min 0 min 0 W/m 22,5 km/h (4 Bft) 95,74 %
27.11.2019 21:18 10,7 C 9,4 C 8,3 C 92 % 988,1 hPa 0,0 l/m 0 min 0 min 0 W/m 35,4 km/h (5 Bft) 97,83 %
27.11.2019 21:20 10,7 C 9,4 C 8,3 C 92 % 988,2 hPa 0,0 l/m 0 min 0 min 0 W/m 35,4 km/h (5 Bft) 97,87 %
27.11.2019 21:22 10,8 C 9,4 C 8,3 C 92 % 988,2 hPa 0,0 l/m 0 min 0 min 0 W/m 29,0 km/h (5 Bft) 95,74 %
27.11.2019 21:24 10,8 C 9,4 C 8,9 C 92 % 988,2 hPa 0,0 l/m 0 min 0 min 0 W/m 32,2 km/h (5 Bft) 93,62 %
27.11.2019 21:26 10,8 C 9,4 C 8,9 C 92 % 988,2 hPa 0,0 l/m 0 min 2 min 0 W/m 45,1 km/h (6 Bft) 95,74 %
27.11.2019 21:28 10,8 C 9,4 C 8,9 C 92 % 988,2 hPa 0,0 l/m 0 min 2 min 0 W/m 32,2 km/h (5 Bft) 95,74 %
27.11.2019 21:30 10,8 C 9,4 C 8,3 C 92 % 988,2 hPa 0,0 l/m 0 min 2 min 0 W/m 35,4 km/h (5 Bft) 95,65 %
27.11.2019 21:32 10,9 C 9,4 C 8,3 C 92 % 988,2 hPa 0,0 l/m 0 min 2 min 0 W/m 35,4 km/h (5 Bft) 95,74 %
27.11.2019 21:34 10,9 C 9,4 C 8,3 C 92 % 988,2 hPa 0,0 l/m 0 min 2 min 0 W/m 29,0 km/h (5 Bft) 93,62 %
27.11.2019 21:36 10,9 C 9,4 C 8,3 C 92 % 988,3 hPa 0,0 l/m 0 min 2 min 0 W/m 32,2 km/h (5 Bft) 93,62 %
27.11.2019 21:38 10,9 C 9,4 C 8,9 C 92 % 988,3 hPa 0,0 l/m 0 min 0 min 0 W/m 35,4 km/h (5 Bft) 95,74 %
27.11.2019 21:40 10,9 C 9,4 C 8,9 C 92 % 988,4 hPa 0,0 l/m 0 min 0 min 0 W/m 22,5 km/h (4 Bft) 95,12 %
27.11.2019 21:42 10,9 C 9,4 C 8,3 C 92 % 988,3 hPa 0,0 l/m 0 min 0 min 0 W/m 35,4 km/h (5 Bft) 93,62 %
27.11.2019 21:44 10,9 C 9,4 C 8,9 C 92 % 988,3 hPa 0,0 l/m 0 min 0 min 0 W/m 35,4 km/h (5 Bft) 76,60 %
27.11.2019 21:46 10,9 C 9,4 C 8,9 C 92 % 988,4 hPa 0,0 l/m 0 min 0 min 0 W/m 35,4 km/h (5 Bft) 72,09 %
27.11.2019 21:48 10,9 C 9,4 C 8,9 C 92 % 988,4 hPa 0,0 l/m 0 min 0 min 0 W/m 29,0 km/h (5 Bft) 93,48 %
27.11.2019 21:50 10,9 C 9,4 C 8,9 C 92 % 988,4 hPa 0,0 l/m 0 min 0 min 0 W/m 35,4 km/h (5 Bft) 95,74 %
27.11.2019 21:52 10,8 C 9,4 C 8,9 C 92 % 988,4 hPa 0,0 l/m 0 min 0 min 0 W/m 29,0 km/h (5 Bft) 95,74 %
27.11.2019 21:54 10,9 C 9,4 C 8,9 C 92 % 988,4 hPa 0,0 l/m 0 min 0 min 0 W/m 19,3 km/h (3 Bft) 94,23 %
27.11.2019 21:56 10,8 C 9,4 C 8,9 C 92 % 988,4 hPa 0,0 l/m 0 min 0 min 0 W/m 22,5 km/h (4 Bft) 93,62 %
27.11.2019 21:58 10,8 C 9,4 C 8,9 C 92 % 988,3 hPa 0,0 l/m 0 min 0 min 0 W/m 29,0 km/h (5 Bft) 93,62 %
27.11.2019 22:00 10,8 C 9,4 C 8,9 C 92 % 988,4 hPa 0,0 l/m 0 min 0 min 0 W/m 32,2 km/h (5 Bft) 93,62 %
27.11.2019 22:02 10,8 C 9,4 C 8,9 C 92 % 988,3 hPa 0,0 l/m 0 min 0 min 0 W/m 25,7 km/h (4 Bft) 97,87 %
27.11.2019 22:04 10,8 C 9,4 C 8,9 C 92 % 988,3 hPa 0,0 l/m 0 min 0 min 0 W/m 32,2 km/h (5 Bft) 95,74 %
27.11.2019 22:06 10,8 C 9,4 C 8,9 C 92 % 988,2 hPa 0,0 l/m 0 min 0 min 0 W/m 32,2 km/h (5 Bft) 97,83 %
27.11.2019 22:08 10,9 C 9,4 C 8,9 C 92 % 988,2 hPa 0,0 l/m 0 min 0 min 0 W/m 25,7 km/h (4 Bft) 100,00 %
27.11.2019 22:10 10,9 C 9,4 C 8,9 C 92 % 988,2 hPa 0,0 l/m 0 min 0 min 0 W/m 29,0 km/h (5 Bft) 100,00 %
27.11.2019 22:12 10,9 C 9,4 C 8,9 C 92 % 988,3 hPa 0,0 l/m 0 min 0 min 0 W/m 29,0 km/h (5 Bft) 100,00 %
27.11.2019 22:14 10,9 C 9,4 C 8,9 C 92 % 988,3 hPa 0,0 l/m 0 min 0 min 0 W/m 25,7 km/h (4 Bft) 100,00 %
27.11.2019 22:16 10,9 C 9,4 C 8,9 C 92 % 988,2 hPa 0,0 l/m 0 min 0 min 0 W/m 35,4 km/h (5 Bft) 100,00 %
27.11.2019 22:18 10,9 C 9,4 C 8,9 C 92 % 988,3 hPa 0,0 l/m 0 min 0 min 0 W/m 32,2 km/h (5 Bft) 100,00 %
27.11.2019 22:20 10,9 C 9,4 C 8,9 C 92 % 988,2 hPa 0,0 l/m 0 min 0 min 0 W/m 22,5 km/h (4 Bft) 100,00 %
27.11.2019 22:22 10,9 C 9,4 C 8,9 C 91 % 988,2 hPa 0,0 l/m 0 min 0 min 0 W/m 29,0 km/h (5 Bft) 100,00 %
27.11.2019 22:24 10,9 C 9,4 C 8,9 C 91 % 988,2 hPa 0,0 l/m 0 min 0 min 0 W/m 35,4 km/h (5 Bft) 100,00 %
27.11.2019 22:26 10,9 C 9,4 C 8,9 C 91 % 988,1 hPa 0,0 l/m 0 min 0 min 0 W/m 35,4 km/h (5 Bft) 97,87 %
27.11.2019 22:28 10,9 C 9,4 C 8,9 C 91 % 988,2 hPa 0,0 l/m 0 min 0 min 0 W/m 29,0 km/h (5 Bft) 100,00 %
27.11.2019 22:30 11,0 C 9,4 C 9,4 C 91 % 988,2 hPa 0,0 l/m 0 min 0 min 0 W/m 32,2 km/h (5 Bft) 100,00 %
27.11.2019 22:32 11,0 C 9,4 C 9,4 C 90 % 988,1 hPa 0,0 l/m 0 min 0 min 0 W/m 35,4 km/h (5 Bft) 97,87 %
27.11.2019 22:34 11,0 C 9,4 C 9,4 C 90 % 988,2 hPa 0,0 l/m 0 min 0 min 0 W/m 35,4 km/h (5 Bft) 100,00 %
27.11.2019 22:36 11,1 C 9,4 C 9,4 C 90 % 988,1 hPa 0,0 l/m 0 min 0 min 0 W/m 29,0 km/h (5 Bft) 100,00 %
27.11.2019 22:38 11,1 C 10,0 C 9,4 C 90 % 988,1 hPa 0,0 l/m 0 min 0 min 0 W/m 48,3 km/h (6 Bft) 100,00 %
27.11.2019 22:40 11,1 C 10,0 C 9,4 C 90 % 988,2 hPa 0,0 l/m 0 min 0 min 0 W/m 41,8 km/h (6 Bft) 97,83 %
27.11.2019 22:42 11,1 C 9,4 C 9,4 C 89 % 988,1 hPa 0,0 l/m 0 min 2 min 0 W/m 45,1 km/h (6 Bft) 100,00 %
27.11.2019 22:44 11,1 C 9,4 C 8,9 C 89 % 988,2 hPa 0,0 l/m 0 min 2 min 0 W/m 48,3 km/h (6 Bft) 100,00 %
27.11.2019 22:46 11,2 C 10,0 C 8,9 C 89 % 988,2 hPa 0,0 l/m 0 min 2 min 0 W/m 51,5 km/h (7 Bft) 97,87 %
27.11.2019 22:48 11,2 C 10,6 C 9,4 C 89 % 988,1 hPa 0,0 l/m 0 min 2 min 0 W/m 32,2 km/h (5 Bft) 97,87 %
27.11.2019 22:50 11,2 C 10,6 C 9,4 C 89 % 988,0 hPa 0,0 l/m 0 min 2 min 0 W/m 25,7 km/h (4 Bft) 100,00 %
27.11.2019 22:52 11,2 C 10,6 C 9,4 C 89 % 988,1 hPa 0,0 l/m 0 min 2 min 0 W/m 38,6 km/h (5 Bft) 100,00 %
27.11.2019 22:54 11,2 C 10,6 C 9,4 C 89 % 988,0 hPa 0,0 l/m 0 min 2 min 0 W/m 29,0 km/h (5 Bft) 100,00 %
27.11.2019 22:56 11,2 C 10,6 C 9,4 C 88 % 988,1 hPa 0,0 l/m 0 min 2 min 0 W/m 38,6 km/h (5 Bft) 100,00 %
27.11.2019 22:58 11,2 C 10,6 C 9,4 C 88 % 988,0 hPa 0,0 l/m 0 min 0 min 0 W/m 32,2 km/h (5 Bft) 100,00 %
27.11.2019 23:00 11,3 C 10,6 C 9,4 C 88 % 988,1 hPa 0,0 l/m 0 min 0 min 0 W/m 35,4 km/h (5 Bft) 100,00 %
27.11.2019 23:02 11,3 C 10,6 C 9,4 C 88 % 988,2 hPa 0,0 l/m 0 min 0 min 0 W/m 38,6 km/h (5 Bft) 100,00 %
27.11.2019 23:04 11,3 C 11,1 C 10,0 C 88 % 988,1 hPa 0,0 l/m 0 min 0 min 0 W/m 61,2 km/h (7 Bft) 100,00 %
27.11.2019 23:06 11,3 C 11,1 C 10,0 C 87 % 988,1 hPa 0,0 l/m 0 min 0 min 0 W/m 38,6 km/h (5 Bft) 97,87 %
27.11.2019 23:08 11,4 C 11,1 C 10,0 C 87 % 988,1 hPa 0,0 l/m 0 min 2 min 0 W/m 54,7 km/h (7 Bft) 100,00 %
27.11.2019 23:10 11,4 C 10,6 C 10,0 C 87 % 988,3 hPa 0,0 l/m 0 min 0 min 0 W/m 35,4 km/h (5 Bft) 100,00 %
27.11.2019 23:12 11,4 C 10,6 C 10,0 C 87 % 988,1 hPa 0,0 l/m 0 min 2 min 0 W/m 41,8 km/h (6 Bft) 97,87 %
27.11.2019 23:14 11,4 C 10,6 C 10,0 C 87 % 988,1 hPa 0,0 l/m 0 min 2 min 0 W/m 29,0 km/h (5 Bft) 97,83 %
27.11.2019 23:16 11,5 C 10,6 C 9,4 C 87 % 988,4 hPa 0,0 l/m 0 min 2 min 0 W/m 41,8 km/h (6 Bft) 97,87 %
27.11.2019 23:18 11,5 C 10,0 C 9,4 C 87 % 988,1 hPa 0,0 l/m 0 min 2 min 0 W/m 45,1 km/h (6 Bft) 97,87 %
27.11.2019 23:20 11,5 C 10,0 C 9,4 C 87 % 988,5 hPa 0,0 l/m 0 min 2 min 0 W/m 64,4 km/h (8 Bft) 97,87 %
27.11.2019 23:22 11,4 C 10,0 C 9,4 C 87 % 988,2 hPa 0,0 l/m 0 min 2 min 0 W/m 54,7 km/h (7 Bft) 97,87 %
27.11.2019 23:24 11,4 C 10,0 C 8,9 C 87 % 988,2 hPa 0,0 l/m 0 min 2 min 0 W/m 41,8 km/h (6 Bft) 97,87 %
27.11.2019 23:26 11,4 C 10,0 C 8,9 C 87 % 988,4 hPa 0,0 l/m 0 min 2 min 0 W/m 38,6 km/h (5 Bft) 97,83 %
27.11.2019 23:28 11,4 C 10,0 C 8,9 C 87 % 988,3 hPa 0,0 l/m 0 min 2 min 0 W/m 51,5 km/h (7 Bft) 97,87 %
27.11.2019 23:30 11,4 C 9,4 C 8,9 C 88 % 988,2 hPa 0,0 l/m 0 min 2 min 0 W/m 25,7 km/h (4 Bft) 97,87 %
27.11.2019 23:32 11,4 C 9,4 C 8,9 C 88 % 988,4 hPa 0,0 l/m 0 min 2 min 0 W/m 35,4 km/h (5 Bft) 97,87 %
27.11.2019 23:34 11,3 C 9,4 C 8,9 C 88 % 988,4 hPa 0,0 l/m 0 min 2 min 0 W/m 38,6 km/h (5 Bft) 97,87 %
27.11.2019 23:36 11,3 C 9,4 C 8,9 C 88 % 988,2 hPa 0,0 l/m 0 min 2 min 0 W/m 32,2 km/h (5 Bft) 97,87 %
27.11.2019 23:38 11,3 C 9,4 C 8,9 C 88 % 988,5 hPa 0,2 l/m 0 min 2 min 0 W/m 45,1 km/h (6 Bft) 97,83 %
27.11.2019 23:40 11,2 C 9,4 C 8,9 C 89 % 988,4 hPa 0,0 l/m 0 min 2 min 0 W/m 48,3 km/h (6 Bft) 93,62 %
27.11.2019 23:42 11,2 C 9,4 C 8,9 C 89 % 988,3 hPa 0,0 l/m 0 min 2 min 0 W/m 41,8 km/h (6 Bft) 93,62 %
27.11.2019 23:44 11,2 C 9,4 C 8,9 C 89 % 988,2 hPa 0,0 l/m 0 min 2 min 0 W/m 51,5 km/h (7 Bft) 95,74 %
27.11.2019 23:46 11,1 C 10,0 C 8,9 C 89 % 988,4 hPa 0,0 l/m 0 min 2 min 0 W/m 38,6 km/h (5 Bft) 97,87 %
27.11.2019 23:48 11,1 C 10,0 C 8,9 C 89 % 988,4 hPa 0,0 l/m 0 min 2 min 0 W/m 35,4 km/h (5 Bft) 97,87 %
27.11.2019 23:50 11,1 C 10,0 C 9,4 C 89 % 988,6 hPa 0,0 l/m 0 min 2 min 0 W/m 70,8 km/h (8 Bft) 95,65 %
27.11.2019 23:52 11,2 C 10,6 C 9,4 C 88 % 988,3 hPa 0,0 l/m 0 min 2 min 0 W/m 41,8 km/h (6 Bft) 93,62 %
27.11.2019 23:54 11,2 C 10,6 C 9,4 C 88 % 988,5 hPa 0,0 l/m 0 min 2 min 0 W/m 61,2 km/h (7 Bft) 93,62 %
27.11.2019 23:56 11,2 C 10,6 C 9,4 C 88 % 988,4 hPa 0,0 l/m 0 min 2 min 0 W/m 45,1 km/h (6 Bft) 97,87 %
27.11.2019 23:58 11,2 C 10,6 C 9,4 C 88 % 988,6 hPa 0,0 l/m 0 min 2 min 0 W/m 70,8 km/h (8 Bft) 95,74 %
_ Min-Zeit 06:26 03:44 03:48 13:36 22:50 - - - - 11:32 12:04
Minimum _ 9,5 C 8,3 C 7,8 C 78 % 988,0 hPa - - - - 6,4 km/h (2 Bft) 65,96 %
_ Max-Zeit 13:26 13:22 13:52 05:12 00:04 03:50 10:44 04:05 13:22 23:50 00:00
Maximum _ 12,9 C 16,7 C 11,7 C 98 % 998,4 hPa 0,4 l/m 2 min 5 min 407 W/m 70,8 km/h
O-SO (8 Bft)
100,00 %
Durchschnitt _ 10,7 C 9,7 C 8,9 C 91 % 991,1 hPa #4,6 l/m #42 min. #5:30 h 71 W/m 23,7 km/h (4 Bft) 97,33 %
© 2019 W. Hausmann